Wetterdaten: Freitag, 04.11.2016
Datum Zeit Temp. Aussen Temp. o. S. +5cm Feuchte Auss BlattFeu 1 Luftdruck Regen Sonnenschein Regendauer Solar Windben Empfang
04.11.2016 00:00 6,3 C 5,6 C 3,9 C 93 % 0 lf 1018,2 hPa 0,0 l/m 0 min 0 min 0 W/m 8,4 km/h (2 Bft) 91,49 %
04.11.2016 00:02 6,3 C 5,6 C 4,4 C 93 % 0 lf 1018,2 hPa 0,0 l/m 0 min 0 min 0 W/m 10,5 km/h (2 Bft) 92,31 %
04.11.2016 00:06 6,2 C 6,1 C 4,4 C 93 % 0 lf 1018,2 hPa 0,0 l/m 0 min 0 min 0 W/m 10,5 km/h (2 Bft) 94,68 %
04.11.2016 00:08 6,2 C 6,1 C 4,4 C 93 % 0 lf 1018,1 hPa 0,0 l/m 0 min 0 min 0 W/m 14,6 km/h (3 Bft) 95,74 %
04.11.2016 00:10 6,2 C 6,1 C 4,4 C 93 % 0 lf 1018,1 hPa 0,0 l/m 0 min 0 min 0 W/m 8,4 km/h (2 Bft) 91,49 %
04.11.2016 00:12 6,2 C 6,1 C 4,4 C 93 % 0 lf 1018,1 hPa 0,0 l/m 0 min 0 min 0 W/m 14,6 km/h (3 Bft) 95,74 %
04.11.2016 00:14 6,2 C 6,1 C 4,4 C 93 % 0 lf 1018,0 hPa 0,0 l/m 0 min 0 min 0 W/m 6,3 km/h (2 Bft) 95,65 %
04.11.2016 00:16 6,2 C 6,1 C 4,4 C 93 % 0 lf 1018,0 hPa 0,0 l/m 0 min 0 min 0 W/m 8,4 km/h (2 Bft) 95,74 %
04.11.2016 00:18 6,2 C 6,1 C 4,4 C 94 % 0 lf 1018,0 hPa 0,0 l/m 0 min 0 min 0 W/m 10,5 km/h (2 Bft) 95,74 %
04.11.2016 00:20 6,2 C 6,1 C 4,4 C 94 % 0 lf 1018,0 hPa 0,0 l/m 0 min 0 min 0 W/m 8,4 km/h (2 Bft) 95,74 %
04.11.2016 00:22 6,2 C 6,1 C 4,4 C 94 % 0 lf 1017,9 hPa 0,0 l/m 0 min 0 min 0 W/m 6,3 km/h (2 Bft) 95,74 %
04.11.2016 00:24 6,2 C 6,1 C 4,4 C 94 % 0 lf 1017,9 hPa 0,0 l/m 0 min 0 min 0 W/m 6,3 km/h (2 Bft) 95,74 %
04.11.2016 00:26 6,1 C 5,6 C 3,9 C 94 % 0 lf 1017,9 hPa 0,0 l/m 0 min 0 min 0 W/m 8,4 km/h (2 Bft) 97,83 %
04.11.2016 00:28 6,1 C 6,1 C 4,4 C 94 % 0 lf 1017,9 hPa 0,0 l/m 0 min 0 min 0 W/m 6,3 km/h (2 Bft) 95,74 %
04.11.2016 00:30 6,1 C 6,1 C 4,4 C 94 % 0 lf 1017,9 hPa 0,0 l/m 0 min 0 min 0 W/m 8,4 km/h (2 Bft) 97,87 %
04.11.2016 00:32 6,1 C 6,1 C 4,4 C 94 % 0 lf 1017,9 hPa 0,0 l/m 0 min 0 min 0 W/m 8,4 km/h (2 Bft) 96,23 %
04.11.2016 00:34 6,1 C 6,1 C 4,4 C 93 % 0 lf 1017,9 hPa 0,0 l/m 0 min 0 min 0 W/m 10,5 km/h (2 Bft) 100,00 %
04.11.2016 00:36 6,1 C 6,1 C 4,4 C 93 % 0 lf 1017,9 hPa 0,0 l/m 0 min 0 min 0 W/m 8,4 km/h (2 Bft) 100,00 %
04.11.2016 00:38 6,1 C 6,1 C 4,4 C 93 % 0 lf 1017,9 hPa 0,0 l/m 0 min 0 min 0 W/m 8,4 km/h (2 Bft) 95,74 %
04.11.2016 00:40 6,1 C 6,1 C 4,4 C 93 % 0 lf 1017,9 hPa 0,0 l/m 0 min 0 min 0 W/m 12,6 km/h (3 Bft) 100,00 %
04.11.2016 00:42 6,1 C 6,1 C 4,4 C 93 % 0 lf 1018,0 hPa 0,0 l/m 0 min 0 min 0 W/m 10,5 km/h (2 Bft) 97,56 %
04.11.2016 00:44 6,1 C 5,6 C 4,4 C 93 % 0 lf 1018,0 hPa 0,0 l/m 0 min 0 min 0 W/m 6,3 km/h (2 Bft) 100,00 %
04.11.2016 00:46 6,0 C 5,6 C 4,4 C 94 % 0 lf 1018,0 hPa 0,0 l/m 0 min 0 min 0 W/m 8,4 km/h (2 Bft) 100,00 %
04.11.2016 00:48 6,0 C 5,6 C 3,9 C 94 % 0 lf 1017,9 hPa 0,0 l/m 0 min 0 min 0 W/m 6,3 km/h (2 Bft) 97,87 %
04.11.2016 00:50 6,0 C 5,6 C 3,9 C 94 % 0 lf 1017,9 hPa 0,0 l/m 0 min 0 min 0 W/m 8,4 km/h (2 Bft) 100,00 %
04.11.2016 00:52 6,0 C 5,6 C 3,9 C 94 % 0 lf 1017,7 hPa 0,0 l/m 0 min 0 min 0 W/m 14,6 km/h (3 Bft) 91,49 %
04.11.2016 00:54 6,0 C 5,6 C 4,4 C 94 % 0 lf 1017,8 hPa 0,0 l/m 0 min 0 min 0 W/m 10,5 km/h (2 Bft) 97,87 %
04.11.2016 00:56 6,0 C 6,1 C 4,4 C 94 % 0 lf 1017,8 hPa 0,0 l/m 0 min 0 min 0 W/m 10,5 km/h (2 Bft) 97,87 %
04.11.2016 00:58 6,0 C 6,1 C 4,4 C 94 % 0 lf 1017,7 hPa 0,0 l/m 0 min 0 min 0 W/m 8,4 km/h (2 Bft) 100,00 %
04.11.2016 01:00 6,0 C 6,1 C 4,4 C 94 % 0 lf 1017,7 hPa 0,0 l/m 0 min 0 min 0 W/m 8,4 km/h (2 Bft) 100,00 %
04.11.2016 01:02 5,9 C 6,1 C 4,4 C 94 % 0 lf 1017,7 hPa 0,0 l/m 0 min 0 min 0 W/m 8,4 km/h (2 Bft) 94,59 %
04.11.2016 01:04 5,9 C 6,1 C 4,4 C 94 % 0 lf 1017,7 hPa 0,0 l/m 0 min 0 min 0 W/m 12,6 km/h (3 Bft) 100,00 %
04.11.2016 01:06 5,9 C 6,1 C 4,4 C 94 % 0 lf 1017,6 hPa 0,0 l/m 0 min 0 min 0 W/m 8,4 km/h (2 Bft) 100,00 %
04.11.2016 01:08 5,9 C 6,1 C 4,4 C 94 % 0 lf 1017,6 hPa 0,0 l/m 0 min 0 min 0 W/m 8,4 km/h (2 Bft) 93,62 %
04.11.2016 01:10 5,9 C 6,1 C 4,4 C 94 % 0 lf 1017,6 hPa 0,0 l/m 0 min 0 min 0 W/m 8,4 km/h (2 Bft) 97,87 %
04.11.2016 01:12 5,9 C 6,1 C 4,4 C 94 % 0 lf 1017,6 hPa 0,0 l/m 0 min 0 min 0 W/m 10,5 km/h (2 Bft) 97,83 %
04.11.2016 01:14 5,9 C 6,1 C 4,4 C 94 % 0 lf 1017,8 hPa 0,0 l/m 0 min 0 min 0 W/m 8,4 km/h (2 Bft) 95,74 %
04.11.2016 01:16 5,9 C 6,1 C 4,4 C 94 % 0 lf 1017,8 hPa 0,0 l/m 0 min 0 min 0 W/m 8,4 km/h (2 Bft) 97,87 %
04.11.2016 01:18 5,9 C 6,1 C 4,4 C 94 % 0 lf 1017,7 hPa 0,0 l/m 0 min 0 min 0 W/m 6,3 km/h (2 Bft) 97,87 %
04.11.2016 01:20 5,9 C 5,6 C 4,4 C 94 % 0 lf 1017,7 hPa 0,0 l/m 0 min 0 min 0 W/m 8,4 km/h (2 Bft) 97,87 %
04.11.2016 01:22 5,9 C 5,6 C 4,4 C 94 % 0 lf 1017,7 hPa 0,0 l/m 0 min 0 min 0 W/m 6,3 km/h (2 Bft) 95,74 %
04.11.2016 01:24 5,9 C 5,6 C 4,4 C 94 % 0 lf 1017,7 hPa 0,0 l/m 0 min 0 min 0 W/m 8,4 km/h (2 Bft) 97,83 %
04.11.2016 01:26 5,9 C 6,1 C 4,4 C 94 % 0 lf 1017,6 hPa 0,0 l/m 0 min 0 min 0 W/m 10,5 km/h (2 Bft) 97,87 %
04.11.2016 01:28 5,9 C 5,6 C 4,4 C 94 % 0 lf 1017,5 hPa 0,0 l/m 0 min 0 min 0 W/m 10,5 km/h (2 Bft) 97,87 %
04.11.2016 01:30 5,9 C 5,6 C 4,4 C 94 % 0 lf 1017,5 hPa 0,0 l/m 0 min 0 min 0 W/m 8,4 km/h (2 Bft) 100,00 %
04.11.2016 01:32 5,9 C 5,6 C 4,4 C 94 % 0 lf 1017,5 hPa 0,0 l/m 0 min 0 min 0 W/m 8,4 km/h (2 Bft) 97,87 %
04.11.2016 01:34 5,9 C 5,6 C 4,4 C 94 % 0 lf 1017,5 hPa 0,0 l/m 0 min 0 min 0 W/m 12,6 km/h (3 Bft) 97,87 %
04.11.2016 01:36 5,9 C 5,6 C 4,4 C 94 % 0 lf 1017,6 hPa 0,0 l/m 0 min 0 min 0 W/m 8,4 km/h (2 Bft) 95,65 %
04.11.2016 01:38 5,9 C 6,1 C 4,4 C 94 % 0 lf 1017,6 hPa 0,0 l/m 0 min 0 min 0 W/m 6,3 km/h (2 Bft) 100,00 %
04.11.2016 01:40 5,9 C 6,1 C 4,4 C 94 % 0 lf 1017,7 hPa 0,0 l/m 0 min 0 min 0 W/m 10,5 km/h (2 Bft) 100,00 %
04.11.2016 01:42 5,9 C 6,1 C 4,4 C 94 % 0 lf 1017,6 hPa 0,0 l/m 0 min 0 min 0 W/m 8,4 km/h (2 Bft) 89,58 %
04.11.2016 01:44 5,9 C 6,1 C 4,4 C 94 % 0 lf 1017,5 hPa 0,0 l/m 0 min 0 min 0 W/m 10,5 km/h (2 Bft) 95,74 %
04.11.2016 01:46 5,9 C 6,1 C 4,4 C 94 % 0 lf 1017,5 hPa 0,0 l/m 0 min 0 min 0 W/m 8,4 km/h (2 Bft) 100,00 %
04.11.2016 01:48 5,9 C 6,1 C 4,4 C 94 % 0 lf 1017,5 hPa 0,0 l/m 0 min 0 min 0 W/m 8,4 km/h (2 Bft) 100,00 %
04.11.2016 01:50 5,9 C 6,1 C 4,4 C 94 % 0 lf 1017,5 hPa 0,0 l/m 0 min 0 min 0 W/m 6,3 km/h (2 Bft) 97,87 %
04.11.2016 01:52 5,9 C 6,1 C 4,4 C 94 % 0 lf 1017,4 hPa 0,0 l/m 0 min 0 min 0 W/m 8,4 km/h (2 Bft) 97,92 %
04.11.2016 01:54 5,9 C 6,1 C 4,4 C 94 % 0 lf 1017,4 hPa 0,0 l/m 0 min 0 min 0 W/m 8,4 km/h (2 Bft) 97,87 %
04.11.2016 01:56 5,9 C 6,1 C 4,4 C 94 % 0 lf 1017,5 hPa 0,0 l/m 0 min 0 min 0 W/m 8,4 km/h (2 Bft) 95,74 %
04.11.2016 01:58 5,9 C 6,1 C 4,4 C 94 % 0 lf 1017,4 hPa 0,0 l/m 0 min 0 min 0 W/m 4,2 km/h (1 Bft) 97,87 %
04.11.2016 02:00 5,9 C 6,1 C 4,4 C 94 % 0 lf 1017,4 hPa 0,0 l/m 0 min 0 min 0 W/m 8,4 km/h (2 Bft) 89,13 %
04.11.2016 02:02 5,9 C 6,1 C 4,4 C 94 % 0 lf 1017,3 hPa 0,0 l/m 0 min 0 min 0 W/m 8,4 km/h (2 Bft) 95,74 %
04.11.2016 02:04 5,9 C 6,1 C 4,4 C 94 % 0 lf 1017,3 hPa 0,0 l/m 0 min 0 min 0 W/m 10,5 km/h (2 Bft) 95,74 %
04.11.2016 02:06 5,9 C 6,1 C 4,4 C 94 % 0 lf 1017,3 hPa 0,0 l/m 0 min 0 min 0 W/m 8,4 km/h (2 Bft) 95,74 %
04.11.2016 02:08 5,9 C 6,1 C 4,4 C 94 % 0 lf 1017,3 hPa 0,0 l/m 0 min 0 min 0 W/m 8,4 km/h (2 Bft) 93,62 %
04.11.2016 02:10 5,9 C 6,1 C 4,4 C 94 % 0 lf 1017,2 hPa 0,0 l/m 0 min 0 min 0 W/m 8,4 km/h (2 Bft) 95,65 %
04.11.2016 02:12 5,9 C 6,1 C 4,4 C 94 % 0 lf 1017,2 hPa 0,0 l/m 0 min 0 min 0 W/m 6,3 km/h (2 Bft) 93,62 %
04.11.2016 02:14 5,9 C 6,1 C 4,4 C 94 % 0 lf 1017,1 hPa 0,0 l/m 0 min 0 min 0 W/m 8,4 km/h (2 Bft) 97,87 %
04.11.2016 02:16 5,9 C 6,1 C 4,4 C 94 % 0 lf 1017,1 hPa 0,0 l/m 0 min 0 min 0 W/m 8,4 km/h (2 Bft) 93,62 %
04.11.2016 02:18 5,9 C 6,1 C 4,4 C 94 % 0 lf 1017,1 hPa 0,0 l/m 0 min 0 min 0 W/m 6,3 km/h (2 Bft) 97,87 %
04.11.2016 02:20 5,9 C 6,1 C 4,4 C 94 % 0 lf 1017,0 hPa 0,0 l/m 0 min 0 min 0 W/m 8,4 km/h (2 Bft) 93,62 %
04.11.2016 02:22 5,9 C 6,1 C 4,4 C 94 % 0 lf 1017,1 hPa 0,0 l/m 0 min 0 min 0 W/m 6,3 km/h (2 Bft) 97,83 %
04.11.2016 02:24 5,9 C 6,1 C 4,4 C 94 % 0 lf 1017,1 hPa 0,0 l/m 0 min 0 min 0 W/m 6,3 km/h (2 Bft) 95,74 %
04.11.2016 02:26 5,9 C 6,1 C 4,4 C 94 % 0 lf 1017,0 hPa 0,0 l/m 0 min 0 min 0 W/m 10,5 km/h (2 Bft) 97,87 %
04.11.2016 02:28 5,9 C 6,1 C 4,4 C 94 % 0 lf 1017,0 hPa 0,0 l/m 0 min 0 min 0 W/m 8,4 km/h (2 Bft) 97,87 %
04.11.2016 02:30 5,9 C 6,1 C 4,4 C 94 % 0 lf 1017,0 hPa 0,0 l/m 0 min 0 min 0 W/m 8,4 km/h (2 Bft) 97,87 %
04.11.2016 02:32 5,9 C 6,1 C 4,4 C 94 % 0 lf 1017,0 hPa 0,0 l/m 0 min 0 min 0 W/m 6,3 km/h (2 Bft) 91,49 %
04.11.2016 02:34 5,9 C 6,1 C 4,4 C 94 % 0 lf 1017,0 hPa 0,0 l/m 0 min 0 min 0 W/m 8,4 km/h (2 Bft) 95,65 %
04.11.2016 02:36 5,9 C 6,1 C 4,4 C 94 % 0 lf 1017,0 hPa 0,0 l/m 0 min 0 min 0 W/m 8,4 km/h (2 Bft) 95,74 %
04.11.2016 02:38 5,9 C 6,1 C 4,4 C 94 % 0 lf 1017,0 hPa 0,0 l/m 0 min 0 min 0 W/m 6,3 km/h (2 Bft) 91,49 %
04.11.2016 02:40 5,9 C 6,1 C 4,4 C 94 % 0 lf 1016,9 hPa 0,0 l/m 0 min 0 min 0 W/m 6,3 km/h (2 Bft) 95,74 %
04.11.2016 02:42 5,9 C 6,1 C 4,4 C 94 % 0 lf 1016,9 hPa 0,0 l/m 0 min 0 min 0 W/m 6,3 km/h (2 Bft) 95,74 %
04.11.2016 02:44 5,9 C 6,1 C 4,4 C 94 % 0 lf 1016,9 hPa 0,0 l/m 0 min 0 min 0 W/m 8,4 km/h (2 Bft) 95,74 %
04.11.2016 02:46 5,9 C 6,1 C 4,4 C 94 % 0 lf 1016,9 hPa 0,0 l/m 0 min 0 min 0 W/m 6,3 km/h (2 Bft) 100,00 %
04.11.2016 02:48 5,9 C 5,6 C 4,4 C 94 % 0 lf 1016,9 hPa 0,0 l/m 0 min 0 min 0 W/m 4,2 km/h (1 Bft) 91,49 %
04.11.2016 02:50 5,9 C 5,6 C 4,4 C 94 % 0 lf 1016,9 hPa 0,0 l/m 0 min 0 min 0 W/m 8,4 km/h (2 Bft) 93,62 %
04.11.2016 02:52 5,9 C 6,1 C 4,4 C 94 % 0 lf 1016,9 hPa 0,0 l/m 0 min 0 min 0 W/m 8,4 km/h (2 Bft) 93,62 %
04.11.2016 02:54 5,9 C 6,1 C 4,4 C 94 % 0 lf 1016,9 hPa 0,0 l/m 0 min 0 min 0 W/m 8,4 km/h (2 Bft) 95,74 %
04.11.2016 02:56 5,9 C 6,1 C 4,4 C 94 % 0 lf 1016,9 hPa 0,0 l/m 0 min 0 min 0 W/m 10,5 km/h (2 Bft) 95,74 %
04.11.2016 02:58 5,9 C 6,1 C 4,4 C 94 % 0 lf 1016,9 hPa 0,0 l/m 0 min 0 min 0 W/m 10,5 km/h (2 Bft) 95,65 %
04.11.2016 03:00 5,9 C 6,1 C 4,4 C 94 % 0 lf 1016,8 hPa 0,0 l/m 0 min 0 min 0 W/m 12,6 km/h (3 Bft) 95,74 %
04.11.2016 03:02 5,9 C 6,1 C 4,4 C 94 % 0 lf 1016,8 hPa 0,0 l/m 0 min 0 min 0 W/m 6,3 km/h (2 Bft) 95,92 %
04.11.2016 03:04 5,9 C 6,1 C 4,4 C 94 % 0 lf 1016,9 hPa 0,0 l/m 0 min 0 min 0 W/m 6,3 km/h (2 Bft) 93,62 %
04.11.2016 03:06 5,9 C 6,1 C 4,4 C 94 % 0 lf 1016,8 hPa 0,0 l/m 0 min 0 min 0 W/m 6,3 km/h (2 Bft) 93,62 %
04.11.2016 03:08 5,8 C 6,1 C 4,4 C 94 % 0 lf 1016,9 hPa 0,0 l/m 0 min 0 min 0 W/m 8,4 km/h (2 Bft) 95,65 %
04.11.2016 03:10 5,8 C 6,1 C 4,4 C 94 % 0 lf 1016,9 hPa 0,0 l/m 0 min 0 min 0 W/m 6,3 km/h (2 Bft) 95,74 %
04.11.2016 03:12 5,8 C 5,6 C 4,4 C 94 % 0 lf 1016,8 hPa 0,0 l/m 0 min 0 min 0 W/m 8,4 km/h (2 Bft) 89,36 %
04.11.2016 03:14 5,8 C 5,6 C 4,4 C 94 % 0 lf 1016,8 hPa 0,0 l/m 0 min 0 min 0 W/m 10,5 km/h (2 Bft) 95,74 %
04.11.2016 03:16 5,8 C 5,6 C 4,4 C 94 % 0 lf 1016,7 hPa 0,0 l/m 0 min 0 min 0 W/m 8,4 km/h (2 Bft) 95,74 %
04.11.2016 03:18 5,8 C 6,1 C 4,4 C 94 % 0 lf 1016,7 hPa 0,0 l/m 0 min 0 min 0 W/m 8,4 km/h (2 Bft) 93,62 %
04.11.2016 03:20 5,8 C 6,1 C 4,4 C 94 % 0 lf 1016,7 hPa 0,0 l/m 0 min 0 min 0 W/m 12,6 km/h (3 Bft) 95,65 %
04.11.2016 03:22 5,8 C 6,1 C 4,4 C 94 % 0 lf 1016,6 hPa 0,0 l/m 0 min 0 min 0 W/m 6,3 km/h (2 Bft) 93,62 %
04.11.2016 03:24 5,8 C 6,1 C 4,4 C 94 % 0 lf 1016,6 hPa 0,0 l/m 0 min 0 min 0 W/m 10,5 km/h (2 Bft) 93,62 %
04.11.2016 03:26 5,8 C 6,1 C 4,4 C 94 % 0 lf 1016,6 hPa 0,0 l/m 0 min 0 min 0 W/m 8,4 km/h (2 Bft) 97,87 %
04.11.2016 03:28 5,8 C 6,1 C 4,4 C 94 % 0 lf 1016,6 hPa 0,0 l/m 0 min 0 min 0 W/m 10,5 km/h (2 Bft) 100,00 %
04.11.2016 03:30 5,8 C 6,1 C 4,4 C 94 % 0 lf 1016,5 hPa 0,0 l/m 0 min 0 min 0 W/m 8,4 km/h (2 Bft) 97,87 %
04.11.2016 03:32 5,8 C 6,1 C 4,4 C 94 % 0 lf 1016,5 hPa 0,0 l/m 0 min 0 min 0 W/m 10,5 km/h (2 Bft) 97,83 %
04.11.2016 03:34 5,8 C 6,1 C 4,4 C 94 % 0 lf 1016,5 hPa 0,0 l/m 0 min 0 min 0 W/m 8,4 km/h (2 Bft) 95,74 %
04.11.2016 03:36 5,8 C 6,1 C 4,4 C 94 % 0 lf 1016,5 hPa 0,0 l/m 0 min 0 min 0 W/m 8,4 km/h (2 Bft) 100,00 %
04.11.2016 03:38 5,8 C 6,1 C 4,4 C 94 % 0 lf 1016,5 hPa 0,0 l/m 0 min 0 min 0 W/m 10,5 km/h (2 Bft) 97,87 %
04.11.2016 03:40 5,8 C 6,1 C 4,4 C 94 % 0 lf 1016,5 hPa 0,0 l/m 0 min 0 min 0 W/m 8,4 km/h (2 Bft) 97,87 %
04.11.2016 03:42 5,8 C 6,1 C 4,4 C 94 % 0 lf 1016,4 hPa 0,0 l/m 0 min 0 min 0 W/m 6,3 km/h (2 Bft) 97,83 %
04.11.2016 03:44 5,8 C 6,1 C 4,4 C 94 % 0 lf 1016,4 hPa 0,0 l/m 0 min 0 min 0 W/m 8,4 km/h (2 Bft) 95,74 %
04.11.2016 03:46 5,8 C 6,1 C 4,4 C 94 % 0 lf 1016,4 hPa 0,0 l/m 0 min 0 min 0 W/m 8,4 km/h (2 Bft) 95,74 %
04.11.2016 03:48 5,8 C 6,1 C 4,4 C 94 % 0 lf 1016,4 hPa 0,0 l/m 0 min 0 min 0 W/m 8,4 km/h (2 Bft) 97,87 %
04.11.2016 03:50 5,8 C 6,1 C 4,4 C 94 % 0 lf 1016,3 hPa 0,0 l/m 0 min 0 min 0 W/m 8,4 km/h (2 Bft) 97,87 %
04.11.2016 03:52 5,8 C 5,6 C 4,4 C 94 % 0 lf 1016,3 hPa 0,0 l/m 0 min 0 min 0 W/m 8,4 km/h (2 Bft) 97,87 %
04.11.2016 03:54 5,7 C 5,6 C 4,4 C 94 % 0 lf 1016,2 hPa 0,0 l/m 0 min 0 min 0 W/m 8,4 km/h (2 Bft) 97,83 %
04.11.2016 03:56 5,7 C 5,6 C 4,4 C 94 % 0 lf 1016,2 hPa 0,0 l/m 0 min 0 min 0 W/m 10,5 km/h (2 Bft) 97,87 %
04.11.2016 03:58 5,7 C 5,6 C 4,4 C 94 % 0 lf 1016,2 hPa 0,0 l/m 0 min 0 min 0 W/m 10,5 km/h (2 Bft) 95,74 %
04.11.2016 04:00 5,7 C 5,6 C 4,4 C 94 % 0 lf 1016,1 hPa 0,0 l/m 0 min 0 min 0 W/m 12,6 km/h (3 Bft) 93,62 %
04.11.2016 04:05 5,7 C 5,6 C 4,4 C 94 % 0 lf 1016,2 hPa 0,0 l/m 0 min 0 min 0 W/m 8,4 km/h (2 Bft) 100,00 %
04.11.2016 04:06 5,7 C 5,6 C 4,4 C 94 % 0 lf 1016,2 hPa 0,0 l/m 0 min 0 min 0 W/m 8,4 km/h (2 Bft) 100,00 %
04.11.2016 04:08 5,7 C 5,6 C 4,4 C 94 % 0 lf 1016,2 hPa 0,0 l/m 0 min 0 min 0 W/m 8,4 km/h (2 Bft) 97,87 %
04.11.2016 04:10 5,7 C 5,6 C 4,4 C 94 % 0 lf 1016,0 hPa 0,0 l/m 0 min 0 min 0 W/m 6,3 km/h (2 Bft) 97,87 %
04.11.2016 04:12 5,7 C 5,6 C 4,4 C 94 % 0 lf 1016,0 hPa 0,0 l/m 0 min 0 min 0 W/m 8,4 km/h (2 Bft) 95,83 %
04.11.2016 04:14 5,7 C 5,6 C 4,4 C 94 % 0 lf 1016,1 hPa 0,0 l/m 0 min 0 min 0 W/m 10,5 km/h (2 Bft) 95,74 %
04.11.2016 04:16 5,7 C 5,6 C 4,4 C 94 % 0 lf 1016,1 hPa 0,0 l/m 0 min 0 min 0 W/m 10,5 km/h (2 Bft) 97,87 %
04.11.2016 04:18 5,6 C 5,6 C 4,4 C 94 % 0 lf 1016,1 hPa 0,0 l/m 0 min 0 min 0 W/m 12,6 km/h (3 Bft) 97,83 %
04.11.2016 04:20 5,6 C 5,6 C 4,4 C 94 % 0 lf 1016,1 hPa 0,0 l/m 0 min 0 min 0 W/m 8,4 km/h (2 Bft) 95,74 %
04.11.2016 04:22 5,6 C 5,6 C 4,4 C 94 % 0 lf 1016,0 hPa 0,0 l/m 0 min 0 min 0 W/m 8,4 km/h (2 Bft) 93,62 %
04.11.2016 04:24 5,6 C 5,6 C 4,4 C 94 % 0 lf 1016,1 hPa 0,0 l/m 0 min 0 min 0 W/m 10,5 km/h (2 Bft) 95,74 %
04.11.2016 04:26 5,6 C 5,6 C 4,4 C 94 % 0 lf 1016,1 hPa 0,0 l/m 0 min 0 min 0 W/m 8,4 km/h (2 Bft) 95,74 %
04.11.2016 04:28 5,6 C 5,6 C 4,4 C 94 % 0 lf 1016,1 hPa 0,0 l/m 0 min 0 min 0 W/m 6,3 km/h (2 Bft) 97,87 %
04.11.2016 04:30 5,6 C 5,6 C 4,4 C 94 % 0 lf 1016,1 hPa 0,0 l/m 0 min 0 min 0 W/m 8,4 km/h (2 Bft) 91,30 %
04.11.2016 04:32 5,6 C 5,6 C 4,4 C 94 % 0 lf 1016,1 hPa 0,0 l/m 0 min 0 min 0 W/m 10,5 km/h (2 Bft) 97,87 %
04.11.2016 04:34 5,6 C 5,6 C 4,4 C 94 % 0 lf 1016,0 hPa 0,0 l/m 0 min 0 min 0 W/m 14,6 km/h (3 Bft) 97,87 %
04.11.2016 04:36 5,6 C 5,6 C 4,4 C 94 % 0 lf 1016,0 hPa 0,0 l/m 0 min 0 min 0 W/m 12,6 km/h (3 Bft) 93,62 %
04.11.2016 04:38 5,6 C 5,6 C 4,4 C 95 % 0 lf 1016,0 hPa 0,0 l/m 0 min 0 min 0 W/m 8,4 km/h (2 Bft) 93,62 %
04.11.2016 04:40 5,6 C 5,6 C 4,4 C 95 % 0 lf 1016,1 hPa 0,0 l/m 0 min 0 min 0 W/m 6,3 km/h (2 Bft) 95,65 %
04.11.2016 04:42 5,6 C 5,6 C 4,4 C 95 % 0 lf 1016,1 hPa 0,0 l/m 0 min 0 min 0 W/m 10,5 km/h (2 Bft) 93,62 %
04.11.2016 04:44 5,6 C 5,6 C 4,4 C 94 % 0 lf 1016,1 hPa 0,0 l/m 0 min 0 min 0 W/m 10,5 km/h (2 Bft) 93,62 %
04.11.2016 04:46 5,6 C 5,6 C 4,4 C 94 % 0 lf 1016,1 hPa 0,0 l/m 0 min 0 min 0 W/m 8,4 km/h (2 Bft) 91,49 %
04.11.2016 04:48 5,6 C 5,6 C 4,4 C 94 % 0 lf 1016,0 hPa 0,0 l/m 0 min 0 min 0 W/m 8,4 km/h (2 Bft) 93,62 %
04.11.2016 04:50 5,6 C 5,6 C 4,4 C 94 % 0 lf 1016,0 hPa 0,0 l/m 0 min 0 min 0 W/m 12,6 km/h (3 Bft) 91,49 %
04.11.2016 04:52 5,6 C 5,6 C 4,4 C 94 % 0 lf 1016,0 hPa 0,0 l/m 0 min 0 min 0 W/m 10,5 km/h (2 Bft) 95,65 %
04.11.2016 04:54 5,6 C 5,6 C 4,4 C 94 % 0 lf 1015,9 hPa 0,0 l/m 0 min 0 min 0 W/m 14,6 km/h (3 Bft) 95,74 %
04.11.2016 04:56 5,6 C 5,6 C 4,4 C 94 % 0 lf 1016,0 hPa 0,0 l/m 0 min 0 min 0 W/m 12,6 km/h (3 Bft) 95,74 %
04.11.2016 04:58 5,6 C 5,6 C 4,4 C 94 % 0 lf 1015,9 hPa 0,0 l/m 0 min 0 min 0 W/m 8,4 km/h (2 Bft) 95,74 %
04.11.2016 05:00 5,6 C 5,6 C 4,4 C 94 % 0 lf 1015,8 hPa 0,0 l/m 0 min 0 min 0 W/m 8,4 km/h (2 Bft) 91,49 %
04.11.2016 05:02 5,6 C 5,6 C 4,4 C 94 % 0 lf 1015,8 hPa 0,0 l/m 0 min 0 min 0 W/m 10,5 km/h (2 Bft) 93,62 %
04.11.2016 05:04 5,6 C 5,6 C 4,4 C 94 % 0 lf 1015,8 hPa 0,0 l/m 0 min 0 min 0 W/m 6,3 km/h (2 Bft) 95,65 %
04.11.2016 05:06 5,6 C 5,6 C 4,4 C 94 % 0 lf 1015,8 hPa 0,0 l/m 0 min 0 min 0 W/m 6,3 km/h (2 Bft) 95,74 %
04.11.2016 05:08 5,6 C 5,6 C 4,4 C 94 % 0 lf 1015,8 hPa 0,0 l/m 0 min 0 min 0 W/m 6,3 km/h (2 Bft) 95,74 %
04.11.2016 05:10 5,6 C 5,6 C 4,4 C 94 % 0 lf 1015,7 hPa 0,0 l/m 0 min 0 min 0 W/m 6,3 km/h (2 Bft) 93,62 %
04.11.2016 05:12 5,5 C 5,6 C 4,4 C 94 % 0 lf 1015,7 hPa 0,0 l/m 0 min 0 min 0 W/m 6,3 km/h (2 Bft) 97,30 %
04.11.2016 05:14 5,5 C 5,6 C 4,4 C 94 % 0 lf 1015,7 hPa 0,0 l/m 0 min 0 min 0 W/m 10,5 km/h (2 Bft) 95,74 %
04.11.2016 05:16 5,5 C 5,6 C 4,4 C 94 % 0 lf 1015,8 hPa 0,0 l/m 0 min 0 min 0 W/m 8,4 km/h (2 Bft) 95,74 %
04.11.2016 05:18 5,5 C 5,6 C 4,4 C 94 % 0 lf 1015,6 hPa 0,0 l/m 0 min 0 min 0 W/m 8,4 km/h (2 Bft) 97,83 %
04.11.2016 05:20 5,5 C 5,6 C 4,4 C 94 % 0 lf 1015,6 hPa 0,0 l/m 0 min 0 min 0 W/m 12,6 km/h (3 Bft) 95,74 %
04.11.2016 05:22 5,5 C 6,1 C 4,4 C 94 % 0 lf 1015,5 hPa 0,0 l/m 0 min 0 min 0 W/m 14,6 km/h (3 Bft) 97,87 %
04.11.2016 05:24 5,5 C 5,6 C 4,4 C 94 % 0 lf 1015,4 hPa 0,0 l/m 0 min 0 min 0 W/m 16,7 km/h (3 Bft) 100,00 %
04.11.2016 05:26 5,5 C 6,1 C 4,4 C 94 % 0 lf 1015,4 hPa 0,0 l/m 0 min 0 min 0 W/m 12,6 km/h (3 Bft) 100,00 %
04.11.2016 05:28 5,5 C 5,6 C 4,4 C 94 % 0 lf 1015,4 hPa 0,0 l/m 0 min 0 min 0 W/m 12,6 km/h (3 Bft) 100,00 %
04.11.2016 05:30 5,5 C 6,1 C 4,4 C 94 % 0 lf 1015,4 hPa 0,0 l/m 0 min 0 min 0 W/m 12,6 km/h (3 Bft) 100,00 %
04.11.2016 05:32 5,5 C 6,1 C 4,4 C 94 % 0 lf 1015,4 hPa 0,0 l/m 0 min 0 min 0 W/m 10,5 km/h (2 Bft) 100,00 %
04.11.2016 05:34 5,5 C 6,1 C 4,4 C 94 % 0 lf 1015,3 hPa 0,0 l/m 0 min 0 min 0 W/m 8,4 km/h (2 Bft) 100,00 %
04.11.2016 05:36 5,5 C 6,1 C 4,4 C 94 % 0 lf 1015,4 hPa 0,0 l/m 0 min 0 min 0 W/m 12,6 km/h (3 Bft) 93,62 %
04.11.2016 05:38 5,5 C 6,1 C 4,4 C 94 % 0 lf 1015,3 hPa 0,0 l/m 0 min 0 min 0 W/m 10,5 km/h (2 Bft) 100,00 %
04.11.2016 05:40 5,5 C 6,1 C 4,4 C 94 % 0 lf 1015,2 hPa 0,0 l/m 0 min 0 min 0 W/m 12,6 km/h (3 Bft) 95,74 %
04.11.2016 05:42 5,5 C 6,1 C 4,4 C 94 % 0 lf 1015,2 hPa 0,0 l/m 0 min 0 min 0 W/m 18,8 km/h (3 Bft) 93,48 %
04.11.2016 05:44 5,5 C 6,1 C 4,4 C 94 % 0 lf 1015,2 hPa 0,0 l/m 0 min 0 min 0 W/m 14,6 km/h (3 Bft) 97,87 %
04.11.2016 05:46 5,5 C 6,1 C 4,4 C 94 % 0 lf 1015,2 hPa 0,0 l/m 0 min 0 min 0 W/m 12,6 km/h (3 Bft) 93,62 %
04.11.2016 05:48 5,5 C 6,1 C 4,4 C 94 % 0 lf 1015,2 hPa 0,0 l/m 0 min 0 min 0 W/m 14,6 km/h (3 Bft) 95,74 %
04.11.2016 05:50 5,5 C 6,1 C 4,4 C 94 % 0 lf 1015,2 hPa 0,0 l/m 0 min 0 min 0 W/m 12,6 km/h (3 Bft) 97,87 %
04.11.2016 05:52 5,6 C 6,1 C 4,4 C 94 % 0 lf 1015,1 hPa 0,0 l/m 0 min 0 min 0 W/m 14,6 km/h (3 Bft) 95,74 %
04.11.2016 05:54 5,6 C 6,1 C 4,4 C 94 % 0 lf 1015,0 hPa 0,0 l/m 0 min 0 min 0 W/m 14,6 km/h (3 Bft) 97,83 %
04.11.2016 05:56 5,6 C 6,1 C 4,4 C 94 % 0 lf 1014,9 hPa 0,0 l/m 0 min 0 min 0 W/m 12,6 km/h (3 Bft) 97,87 %
04.11.2016 05:58 5,6 C 6,1 C 4,4 C 94 % 0 lf 1014,9 hPa 0,0 l/m 0 min 0 min 0 W/m 12,6 km/h (3 Bft) 97,87 %
04.11.2016 06:00 5,6 C 6,1 C 4,4 C 94 % 0 lf 1015,0 hPa 0,0 l/m 0 min 0 min 0 W/m 10,5 km/h (2 Bft) 93,62 %
04.11.2016 06:02 5,6 C 6,1 C 4,4 C 94 % 0 lf 1015,2 hPa 0,0 l/m 0 min 0 min 0 W/m 10,5 km/h (2 Bft) 97,87 %
04.11.2016 06:04 5,6 C 6,1 C 4,4 C 94 % 0 lf 1015,2 hPa 0,0 l/m 0 min 0 min 0 W/m 10,5 km/h (2 Bft) 95,65 %
04.11.2016 06:06 5,6 C 6,1 C 4,4 C 94 % 0 lf 1015,2 hPa 0,0 l/m 0 min 0 min 0 W/m 12,6 km/h (3 Bft) 97,87 %
04.11.2016 06:08 5,6 C 6,1 C 4,4 C 94 % 0 lf 1015,3 hPa 0,0 l/m 0 min 0 min 0 W/m 8,4 km/h (2 Bft) 93,62 %
04.11.2016 06:10 5,6 C 6,1 C 4,4 C 94 % 0 lf 1015,3 hPa 0,0 l/m 0 min 0 min 0 W/m 6,3 km/h (2 Bft) 95,74 %
04.11.2016 06:12 5,6 C 6,1 C 4,4 C 94 % 0 lf 1015,2 hPa 0,0 l/m 0 min 0 min 0 W/m 10,5 km/h (2 Bft) 97,87 %
04.11.2016 06:14 5,6 C 6,1 C 4,4 C 94 % 0 lf 1015,2 hPa 0,0 l/m 0 min 0 min 0 W/m 10,5 km/h (2 Bft) 97,87 %
04.11.2016 06:16 5,6 C 6,1 C 4,4 C 94 % 0 lf 1015,0 hPa 0,0 l/m 0 min 0 min 0 W/m 8,4 km/h (2 Bft) 97,87 %
04.11.2016 06:18 5,6 C 6,1 C 4,4 C 94 % 0 lf 1015,0 hPa 0,0 l/m 0 min 0 min 0 W/m 12,6 km/h (3 Bft) 95,65 %
04.11.2016 06:20 5,6 C 6,1 C 4,4 C 93 % 0 lf 1014,9 hPa 0,0 l/m 0 min 0 min 0 W/m 6,3 km/h (2 Bft) 96,23 %
04.11.2016 06:22 5,6 C 6,1 C 4,4 C 93 % 0 lf 1014,9 hPa 0,0 l/m 0 min 0 min 0 W/m 10,5 km/h (2 Bft) 95,74 %
04.11.2016 06:24 5,6 C 6,1 C 4,4 C 93 % 0 lf 1014,9 hPa 0,0 l/m 0 min 0 min 0 W/m 10,5 km/h (2 Bft) 97,87 %
04.11.2016 06:26 5,6 C 6,1 C 4,4 C 93 % 0 lf 1014,8 hPa 0,0 l/m 0 min 0 min 0 W/m 12,6 km/h (3 Bft) 85,11 %
04.11.2016 06:28 5,6 C 6,1 C 4,4 C 93 % 0 lf 1014,8 hPa 0,0 l/m 0 min 0 min 0 W/m 12,6 km/h (3 Bft) 97,83 %
04.11.2016 06:30 5,7 C 6,1 C 4,4 C 93 % 0 lf 1014,8 hPa 0,0 l/m 0 min 0 min 0 W/m 12,6 km/h (3 Bft) 100,00 %
04.11.2016 06:32 5,6 C 6,1 C 4,4 C 93 % 0 lf 1014,8 hPa 0,0 l/m 0 min 0 min 0 W/m 14,6 km/h (3 Bft) 95,83 %
04.11.2016 06:34 5,7 C 6,1 C 4,4 C 93 % 0 lf 1014,8 hPa 0,0 l/m 0 min 0 min 0 W/m 12,6 km/h (3 Bft) 97,87 %
04.11.2016 06:36 5,7 C 6,1 C 4,4 C 93 % 0 lf 1014,8 hPa 0,0 l/m 0 min 0 min 0 W/m 10,5 km/h (2 Bft) 97,87 %
04.11.2016 06:38 5,7 C 6,1 C 4,4 C 93 % 0 lf 1014,8 hPa 0,0 l/m 0 min 0 min 0 W/m 10,5 km/h (2 Bft) 97,83 %
04.11.2016 06:40 5,7 C 6,1 C 4,4 C 93 % 0 lf 1014,9 hPa 0,0 l/m 0 min 0 min 0 W/m 8,4 km/h (2 Bft) 95,74 %
04.11.2016 06:42 5,7 C 6,1 C 4,4 C 93 % 0 lf 1014,9 hPa 0,0 l/m 0 min 0 min 0 W/m 8,4 km/h (2 Bft) 95,74 %
04.11.2016 06:44 5,7 C 6,1 C 4,4 C 93 % 0 lf 1014,9 hPa 0,0 l/m 0 min 0 min 0 W/m 6,3 km/h (2 Bft) 93,62 %
04.11.2016 06:46 5,7 C 6,1 C 4,4 C 93 % 0 lf 1014,9 hPa 0,0 l/m 0 min 0 min 0 W/m 8,4 km/h (2 Bft) 97,87 %
04.11.2016 06:48 5,7 C 6,1 C 4,4 C 93 % 0 lf 1014,9 hPa 0,0 l/m 0 min 0 min 0 W/m 8,4 km/h (2 Bft) 97,87 %
04.11.2016 06:50 5,7 C 6,1 C 4,4 C 93 % 0 lf 1014,8 hPa 0,0 l/m 0 min 0 min 0 W/m 8,4 km/h (2 Bft) 97,83 %
04.11.2016 06:52 5,7 C 6,1 C 4,4 C 93 % 0 lf 1014,9 hPa 0,0 l/m 0 min 0 min 0 W/m 4,2 km/h (1 Bft) 95,74 %
04.11.2016 06:54 5,7 C 6,1 C 4,4 C 93 % 0 lf 1014,9 hPa 0,0 l/m 0 min 0 min 0 W/m 10,5 km/h (2 Bft) 97,87 %
04.11.2016 06:56 5,7 C 6,1 C 4,4 C 92 % 0 lf 1014,9 hPa 0,0 l/m 0 min 0 min 0 W/m 4,2 km/h (1 Bft) 97,87 %
04.11.2016 06:58 5,7 C 6,1 C 4,4 C 92 % 0 lf 1015,0 hPa 0,0 l/m 0 min 0 min 0 W/m 4,2 km/h (1 Bft) 95,74 %
04.11.2016 07:00 5,7 C 6,1 C 4,4 C 92 % 0 lf 1015,0 hPa 0,0 l/m 0 min 0 min 0 W/m 8,4 km/h (2 Bft) 87,23 %
04.11.2016 07:02 5,7 C 6,1 C 4,4 C 92 % 0 lf 1015,0 hPa 0,0 l/m 0 min 0 min 0 W/m 6,3 km/h (2 Bft) 97,83 %
04.11.2016 07:04 5,7 C 6,1 C 4,4 C 92 % 0 lf 1015,0 hPa 0,0 l/m 0 min 0 min 0 W/m 6,3 km/h (2 Bft) 95,74 %
04.11.2016 07:06 5,7 C 6,1 C 5,0 C 92 % 0 lf 1015,0 hPa 0,0 l/m 0 min 0 min 0 W/m 4,2 km/h (1 Bft) 95,74 %
04.11.2016 07:08 5,7 C 6,1 C 4,4 C 92 % 1 lf 1014,9 hPa 0,0 l/m 0 min 0 min 0 W/m 4,2 km/h (1 Bft) 95,74 %
04.11.2016 07:10 5,8 C 6,1 C 4,4 C 92 % 4 lf 1014,9 hPa 0,0 l/m 0 min 2 min 0 W/m 8,4 km/h (2 Bft) 100,00 %
04.11.2016 07:12 5,8 C 6,1 C 4,4 C 92 % 9 lf 1014,9 hPa 0,0 l/m 0 min 2 min 0 W/m 8,4 km/h (2 Bft) 97,92 %
04.11.2016 07:14 5,8 C 6,1 C 4,4 C 92 % 11 lf 1014,8 hPa 0,0 l/m 0 min 2 min 0 W/m 6,3 km/h (2 Bft) 97,87 %
04.11.2016 07:16 5,8 C 6,1 C 4,4 C 92 % 11 lf 1014,8 hPa 0,0 l/m 0 min 2 min 0 W/m 8,4 km/h (2 Bft) 97,87 %
04.11.2016 07:18 5,8 C 6,1 C 4,4 C 92 % 11 lf 1014,8 hPa 0,0 l/m 0 min 2 min 0 W/m 14,6 km/h (3 Bft) 95,74 %
04.11.2016 07:20 5,8 C 6,1 C 4,4 C 92 % 10 lf 1014,8 hPa 0,0 l/m 0 min 2 min 0 W/m 12,6 km/h (3 Bft) 97,87 %
04.11.2016 07:22 5,8 C 6,1 C 4,4 C 92 % 10 lf 1014,8 hPa 0,0 l/m 0 min 2 min 0 W/m 8,4 km/h (2 Bft) 97,87 %
04.11.2016 07:24 5,8 C 5,6 C 4,4 C 92 % 12 lf 1014,7 hPa 0,0 l/m 0 min 2 min 0 W/m 10,5 km/h (2 Bft) 95,65 %
04.11.2016 07:26 5,8 C 5,6 C 4,4 C 92 % 13 lf 1014,7 hPa 0,0 l/m 0 min 2 min 0 W/m 6,3 km/h (2 Bft) 97,87 %
04.11.2016 07:28 5,8 C 5,6 C 4,4 C 92 % 13 lf 1014,7 hPa 0,0 l/m 0 min 2 min 0 W/m 8,4 km/h (2 Bft) 95,74 %
04.11.2016 07:30 5,9 C 5,6 C 4,4 C 92 % 13 lf 1014,7 hPa 0,0 l/m 0 min 2 min 0 W/m 10,5 km/h (2 Bft) 95,74 %
04.11.2016 07:32 5,9 C 5,6 C 4,4 C 92 % 14 lf 1014,7 hPa 0,0 l/m 0 min 2 min 0 W/m 8,4 km/h (2 Bft) 97,87 %
04.11.2016 07:34 5,9 C 5,6 C 4,4 C 92 % 15 lf 1014,7 hPa 0,0 l/m 0 min 2 min 0 W/m 12,6 km/h (3 Bft) 91,49 %
04.11.2016 07:36 5,9 C 5,6 C 4,4 C 92 % 15 lf 1014,7 hPa 0,0 l/m 0 min 2 min 0 W/m 10,5 km/h (2 Bft) 97,83 %
04.11.2016 07:38 5,9 C 5,6 C 4,4 C 92 % 15 lf 1014,8 hPa 0,0 l/m 0 min 2 min 0 W/m 14,6 km/h (3 Bft) 97,87 %
04.11.2016 07:40 5,9 C 5,6 C 4,4 C 92 % 14 lf 1014,8 hPa 0,0 l/m 0 min 2 min 0 W/m 16,7 km/h (3 Bft) 97,87 %
04.11.2016 07:42 5,9 C 5,6 C 4,4 C 92 % 15 lf 1014,8 hPa 0,0 l/m 0 min 2 min 0 W/m 8,4 km/h (2 Bft) 97,87 %
04.11.2016 07:44 6,0 C 5,6 C 4,4 C 92 % 14 lf 1014,7 hPa 0,0 l/m 0 min 2 min 5 W/m 12,6 km/h (3 Bft) 97,87 %
04.11.2016 07:46 6,0 C 5,6 C 4,4 C 92 % 14 lf 1014,7 hPa 0,0 l/m 0 min 2 min 5 W/m 14,6 km/h (3 Bft) 97,87 %
04.11.2016 07:48 6,0 C 5,6 C 4,4 C 92 % 14 lf 1014,7 hPa 0,0 l/m 0 min 2 min 6 W/m 16,7 km/h (3 Bft) 95,65 %
04.11.2016 07:50 6,0 C 5,6 C 4,4 C 92 % 14 lf 1014,6 hPa 0,0 l/m 0 min 2 min 7 W/m 12,6 km/h (3 Bft) 93,62 %
04.11.2016 07:52 6,0 C 5,6 C 4,4 C 92 % 14 lf 1014,6 hPa 0,0 l/m 0 min 2 min 7 W/m 14,6 km/h (3 Bft) 93,62 %
04.11.2016 07:54 6,0 C 5,6 C 4,4 C 92 % 14 lf 1014,5 hPa 0,2 l/m 0 min 0 min 7 W/m 16,7 km/h (3 Bft) 93,62 %
04.11.2016 07:56 6,0 C 5,6 C 4,4 C 92 % 14 lf 1014,6 hPa 0,0 l/m 0 min 0 min 9 W/m 16,7 km/h (3 Bft) 95,74 %
04.11.2016 07:58 6,0 C 5,6 C 4,4 C 92 % 13 lf 1014,6 hPa 0,0 l/m 0 min 2 min 10 W/m 23,0 km/h (4 Bft) 95,74 %
04.11.2016 08:00 5,9 C 5,6 C 4,4 C 92 % 13 lf 1014,5 hPa 0,0 l/m 0 min 2 min 11 W/m 18,8 km/h (3 Bft) 93,48 %
04.11.2016 08:02 5,9 C 5,6 C 4,4 C 92 % 12 lf 1014,4 hPa 0,0 l/m 0 min 2 min 11 W/m 20,9 km/h (4 Bft) 97,87 %
04.11.2016 08:04 5,9 C 5,6 C 4,4 C 92 % 12 lf 1014,4 hPa 0,0 l/m 0 min 2 min 11 W/m 18,8 km/h (3 Bft) 97,87 %
04.11.2016 08:06 5,9 C 5,6 C 4,4 C 92 % 12 lf 1014,4 hPa 0,0 l/m 0 min 2 min 12 W/m 25,1 km/h (4 Bft) 97,87 %
04.11.2016 08:08 5,9 C 5,6 C 4,4 C 92 % 11 lf 1014,4 hPa 0,0 l/m 0 min 2 min 12 W/m 16,7 km/h (3 Bft) 91,49 %
04.11.2016 08:10 5,9 C 5,6 C 4,4 C 92 % 11 lf 1014,4 hPa 0,0 l/m 0 min 2 min 12 W/m 23,0 km/h (4 Bft) 97,87 %
04.11.2016 08:12 5,9 C 5,6 C 4,4 C 92 % 10 lf 1014,4 hPa 0,0 l/m 0 min 2 min 12 W/m 14,6 km/h (3 Bft) 97,83 %
04.11.2016 08:14 5,9 C 5,6 C 4,4 C 92 % 9 lf 1014,4 hPa 0,0 l/m 0 min 2 min 12 W/m 16,7 km/h (3 Bft) 97,87 %
04.11.2016 08:16 5,9 C 5,6 C 4,4 C 92 % 9 lf 1014,3 hPa 0,0 l/m 0 min 2 min 11 W/m 14,6 km/h (3 Bft) 97,87 %
04.11.2016 08:18 5,9 C 5,6 C 4,4 C 92 % 7 lf 1014,3 hPa 0,0 l/m 0 min 2 min 12 W/m 14,6 km/h (3 Bft) 95,74 %
04.11.2016 08:20 6,0 C 5,6 C 4,4 C 92 % 6 lf 1014,3 hPa 0,0 l/m 0 min 0 min 12 W/m 14,6 km/h (3 Bft) 93,62 %
04.11.2016 08:22 6,0 C 5,6 C 4,4 C 92 % 4 lf 1014,1 hPa 0,0 l/m 0 min 0 min 13 W/m 14,6 km/h (3 Bft) 97,87 %
04.11.2016 08:24 6,0 C 5,6 C 4,4 C 92 % 4 lf 1014,1 hPa 0,0 l/m 0 min 0 min 12 W/m 12,6 km/h (3 Bft) 93,48 %
04.11.2016 08:26 6,0 C 5,6 C 4,4 C 92 % 3 lf 1014,1 hPa 0,0 l/m 0 min 0 min 12 W/m 18,8 km/h (3 Bft) 93,62 %
04.11.2016 08:28 6,0 C 5,6 C 4,4 C 92 % 1 lf 1014,0 hPa 0,0 l/m 0 min 0 min 11 W/m 23,0 km/h (4 Bft) 93,62 %
04.11.2016 08:30 6,1 C 6,1 C 4,4 C 92 % 0 lf 1014,0 hPa 0,0 l/m 0 min 0 min 11 W/m 16,7 km/h (3 Bft) 95,74 %
04.11.2016 08:32 6,1 C 6,1 C 4,4 C 92 % 1 lf 1014,1 hPa 0,0 l/m 0 min 0 min 12 W/m 14,6 km/h (3 Bft) 95,74 %
04.11.2016 08:34 6,1 C 6,1 C 4,4 C 92 % 0 lf 1014,1 hPa 0,0 l/m 0 min 2 min 13 W/m 23,0 km/h (4 Bft) 89,13 %
04.11.2016 08:36 6,1 C 6,1 C 4,4 C 92 % 1 lf 1014,0 hPa 0,0 l/m 0 min 2 min 15 W/m 27,2 km/h (4 Bft) 95,74 %
04.11.2016 08:38 6,2 C 6,1 C 4,4 C 91 % 1 lf 1013,9 hPa 0,0 l/m 0 min 2 min 16 W/m 23,0 km/h (4 Bft) 97,87 %
04.11.2016 08:40 6,2 C 6,1 C 4,4 C 91 % 0 lf 1013,7 hPa 0,0 l/m 0 min 0 min 16 W/m 18,8 km/h (3 Bft) 87,23 %
04.11.2016 08:42 6,2 C 6,1 C 4,4 C 91 % 0 lf 1013,7 hPa 0,0 l/m 0 min 0 min 16 W/m 20,9 km/h (4 Bft) 87,23 %
04.11.2016 08:44 6,2 C 6,1 C 4,4 C 91 % 0 lf 1013,7 hPa 0,0 l/m 0 min 0 min 14 W/m 16,7 km/h (3 Bft) 93,62 %
04.11.2016 08:46 6,2 C 6,1 C 4,4 C 91 % 0 lf 1013,7 hPa 0,0 l/m 0 min 0 min 14 W/m 12,6 km/h (3 Bft) 91,30 %
04.11.2016 08:48 6,2 C 6,1 C 4,4 C 91 % 0 lf 1013,6 hPa 0,0 l/m 0 min 0 min 17 W/m 20,9 km/h (4 Bft) 91,49 %
04.11.2016 08:50 6,2 C 6,1 C 4,4 C 91 % 0 lf 1013,5 hPa 0,0 l/m 0 min 0 min 21 W/m 20,9 km/h (4 Bft) 91,49 %
04.11.2016 08:52 6,2 C 6,1 C 4,4 C 91 % 0 lf 1013,5 hPa 0,0 l/m 0 min 0 min 23 W/m 27,2 km/h (4 Bft) 95,74 %
04.11.2016 08:54 6,2 C 6,1 C 4,4 C 91 % 0 lf 1013,5 hPa 0,0 l/m 0 min 0 min 23 W/m 16,7 km/h (3 Bft) 91,49 %
04.11.2016 08:56 6,2 C 6,1 C 4,4 C 91 % 0 lf 1013,5 hPa 0,0 l/m 0 min 0 min 24 W/m 16,7 km/h (3 Bft) 89,36 %
04.11.2016 08:58 6,2 C 6,7 C 4,4 C 90 % 0 lf 1013,5 hPa 0,0 l/m 0 min 0 min 28 W/m 23,0 km/h (4 Bft) 93,48 %
04.11.2016 09:00 6,2 C 6,7 C 4,4 C 90 % 0 lf 1013,5 hPa 0,0 l/m 0 min 0 min 32 W/m 23,0 km/h (4 Bft) 93,62 %
04.11.2016 09:02 6,2 C 6,7 C 4,4 C 90 % 0 lf 1013,5 hPa 0,0 l/m 0 min 0 min 35 W/m 23,0 km/h (4 Bft) 95,74 %
04.11.2016 09:04 6,3 C 6,7 C 4,4 C 90 % 0 lf 1013,5 hPa 0,0 l/m 0 min 0 min 36 W/m 16,7 km/h (3 Bft) 95,74 %
04.11.2016 09:06 6,3 C 6,7 C 4,4 C 90 % 0 lf 1013,3 hPa 0,0 l/m 0 min 0 min 40 W/m 27,2 km/h (4 Bft) 95,83 %
04.11.2016 09:08 6,3 C 6,7 C 4,4 C 90 % 0 lf 1013,3 hPa 0,0 l/m 0 min 0 min 42 W/m 20,9 km/h (4 Bft) 97,83 %
04.11.2016 09:10 6,3 C 6,7 C 4,4 C 90 % 0 lf 1013,2 hPa 0,0 l/m 0 min 0 min 42 W/m 20,9 km/h (4 Bft) 95,74 %
04.11.2016 09:12 6,3 C 6,7 C 4,4 C 90 % 0 lf 1013,2 hPa 0,0 l/m 0 min 0 min 40 W/m 16,7 km/h (3 Bft) 93,75 %
04.11.2016 09:14 6,3 C 6,7 C 4,4 C 90 % 0 lf 1013,3 hPa 0,0 l/m 0 min 0 min 39 W/m 14,6 km/h (3 Bft) 95,74 %
04.11.2016 09:16 6,3 C 6,7 C 4,4 C 90 % 0 lf 1013,4 hPa 0,0 l/m 0 min 0 min 39 W/m 10,5 km/h (2 Bft) 95,74 %
04.11.2016 09:18 6,3 C 6,7 C 4,4 C 90 % 0 lf 1013,5 hPa 0,0 l/m 0 min 0 min 39 W/m 14,6 km/h (3 Bft) 97,87 %
04.11.2016 09:20 6,4 C 6,7 C 5,0 C 89 % 0 lf 1013,4 hPa 0,0 l/m 0 min 0 min 40 W/m 16,7 km/h (3 Bft) 97,83 %
04.11.2016 09:22 6,4 C 7,2 C 5,0 C 89 % 0 lf 1013,5 hPa 0,0 l/m 0 min 0 min 41 W/m 14,6 km/h (3 Bft) 95,74 %
04.11.2016 09:24 6,4 C 7,2 C 5,0 C 89 % 0 lf 1013,5 hPa 0,0 l/m 0 min 0 min 42 W/m 18,8 km/h (3 Bft) 91,49 %
04.11.2016 09:26 6,4 C 7,2 C 5,0 C 89 % 0 lf 1013,5 hPa 0,0 l/m 0 min 0 min 46 W/m 12,6 km/h (3 Bft) 97,87 %
04.11.2016 09:28 6,4 C 7,2 C 5,0 C 89 % 0 lf 1013,4 hPa 0,0 l/m 0 min 0 min 53 W/m 14,6 km/h (3 Bft) 97,87 %
04.11.2016 09:30 6,4 C 7,2 C 5,0 C 89 % 0 lf 1013,4 hPa 0,0 l/m 0 min 0 min 62 W/m 14,6 km/h (3 Bft) 95,74 %
04.11.2016 09:32 6,4 C 7,2 C 5,0 C 89 % 0 lf 1013,5 hPa 0,0 l/m 0 min 0 min 73 W/m 18,8 km/h (3 Bft) 97,83 %
04.11.2016 09:34 6,5 C 7,2 C 5,6 C 89 % 0 lf 1013,5 hPa 0,0 l/m 0 min 0 min 84 W/m 20,9 km/h (4 Bft) 95,74 %
04.11.2016 09:36 6,5 C 7,2 C 5,6 C 89 % 0 lf 1013,5 hPa 0,0 l/m 0 min 0 min 92 W/m 12,6 km/h (3 Bft) 97,87 %
04.11.2016 09:38 6,6 C 7,8 C 5,6 C 89 % 0 lf 1013,5 hPa 0,0 l/m 0 min 0 min 94 W/m 12,6 km/h (3 Bft) 100,00 %
04.11.2016 09:40 6,6 C 7,8 C 5,6 C 89 % 0 lf 1013,5 hPa 0,0 l/m 0 min 0 min 99 W/m 10,5 km/h (2 Bft) 95,74 %
04.11.2016 09:42 6,6 C 7,8 C 6,1 C 89 % 0 lf 1013,5 hPa 0,0 l/m 0 min 0 min 104 W/m 10,5 km/h (2 Bft) 97,87 %
04.11.2016 09:44 6,6 C 7,8 C 6,1 C 89 % 0 lf 1013,5 hPa 0,0 l/m 0 min 0 min 111 W/m 10,5 km/h (2 Bft) 100,00 %
04.11.2016 09:46 6,7 C 7,8 C 6,7 C 89 % 0 lf 1013,4 hPa 0,0 l/m 0 min 0 min 122 W/m 10,5 km/h (2 Bft) 100,00 %
04.11.2016 09:48 6,7 C 7,8 C 6,7 C 89 % 0 lf 1013,4 hPa 0,0 l/m 0 min 0 min 130 W/m 14,6 km/h (3 Bft) 95,74 %
04.11.2016 09:50 6,7 C 7,8 C 6,7 C 89 % 0 lf 1013,4 hPa 0,0 l/m 2 min 0 min 141 W/m 14,6 km/h (3 Bft) 95,74 %
04.11.2016 09:52 6,7 C 8,3 C 6,7 C 88 % 0 lf 1013,4 hPa 0,0 l/m 2 min 0 min 149 W/m 16,7 km/h (3 Bft) 97,87 %
04.11.2016 09:54 6,8 C 8,3 C 7,2 C 89 % 0 lf 1013,4 hPa 0,0 l/m 2 min 0 min 142 W/m 14,6 km/h (3 Bft) 97,87 %
04.11.2016 09:56 6,8 C 8,3 C 7,2 C 88 % 0 lf 1013,4 hPa 0,0 l/m 0 min 0 min 140 W/m 14,6 km/h (3 Bft) 97,83 %
04.11.2016 09:58 6,9 C 8,3 C 7,2 C 88 % 0 lf 1013,3 hPa 0,0 l/m 2 min 0 min 145 W/m 16,7 km/h (3 Bft) 95,74 %
04.11.2016 10:00 6,9 C 7,8 C 7,2 C 88 % 0 lf 1013,3 hPa 0,0 l/m 0 min 0 min 143 W/m 23,0 km/h (4 Bft) 97,87 %
04.11.2016 10:02 6,9 C 8,3 C 7,2 C 88 % 0 lf 1013,2 hPa 0,0 l/m 0 min 0 min 136 W/m 18,8 km/h (3 Bft) 97,87 %
04.11.2016 10:04 7,0 C 8,3 C 7,2 C 88 % 0 lf 1013,2 hPa 0,0 l/m 0 min 0 min 135 W/m 12,6 km/h (3 Bft) 100,00 %
04.11.2016 10:06 7,0 C 8,3 C 7,2 C 88 % 0 lf 1013,1 hPa 0,0 l/m 0 min 0 min 141 W/m 12,6 km/h (3 Bft) 95,74 %
04.11.2016 10:08 7,1 C 8,3 C 7,8 C 88 % 0 lf 1013,1 hPa 0,0 l/m 0 min 0 min 148 W/m 14,6 km/h (3 Bft) 95,65 %
04.11.2016 10:10 7,1 C 8,3 C 7,8 C 87 % 0 lf 1013,1 hPa 0,0 l/m 2 min 0 min 157 W/m 12,6 km/h (3 Bft) 97,87 %
04.11.2016 10:12 7,1 C 8,9 C 7,8 C 87 % 0 lf 1013,1 hPa 0,0 l/m 2 min 0 min 173 W/m 16,7 km/h (3 Bft) 93,62 %
04.11.2016 10:14 7,2 C 8,9 C 7,8 C 87 % 0 lf 1013,1 hPa 0,0 l/m 2 min 0 min 193 W/m 10,5 km/h (2 Bft) 93,62 %
04.11.2016 10:16 7,2 C 9,4 C 8,3 C 87 % 0 lf 1013,1 hPa 0,0 l/m 2 min 0 min 196 W/m 10,5 km/h (2 Bft) 95,74 %
04.11.2016 10:18 7,3 C 10,0 C 8,3 C 87 % 0 lf 1013,1 hPa 0,0 l/m 2 min 0 min 186 W/m 12,6 km/h (3 Bft) 97,83 %
04.11.2016 10:20 7,3 C 10,0 C 8,3 C 87 % 0 lf 1013,0 hPa 0,0 l/m 2 min 0 min 171 W/m 6,3 km/h (2 Bft) 93,88 %
04.11.2016 10:22 7,4 C 9,4 C 8,3 C 87 % 0 lf 1013,1 hPa 0,0 l/m 2 min 0 min 162 W/m 16,7 km/h (3 Bft) 97,87 %
04.11.2016 10:24 7,4 C 8,9 C 8,3 C 87 % 0 lf 1013,0 hPa 0,0 l/m 0 min 0 min 152 W/m 12,6 km/h (3 Bft) 93,62 %
04.11.2016 10:26 7,4 C 8,9 C 7,8 C 87 % 0 lf 1013,1 hPa 0,0 l/m 0 min 0 min 140 W/m 14,6 km/h (3 Bft) 95,74 %
04.11.2016 10:28 7,5 C 8,9 C 7,8 C 86 % 0 lf 1013,1 hPa 0,0 l/m 0 min 0 min 134 W/m 12,6 km/h (3 Bft) 93,62 %
04.11.2016 10:30 7,5 C 9,4 C 7,8 C 86 % 0 lf 1013,2 hPa 0,0 l/m 0 min 0 min 137 W/m 6,3 km/h (2 Bft) 95,65 %
04.11.2016 10:32 7,6 C 9,4 C 7,8 C 86 % 0 lf 1013,1 hPa 0,0 l/m 0 min 0 min 140 W/m 10,5 km/h (2 Bft) 93,62 %
04.11.2016 10:34 7,6 C 8,9 C 7,8 C 86 % 0 lf 1013,2 hPa 0,0 l/m 0 min 0 min 141 W/m 12,6 km/h (3 Bft) 93,62 %
04.11.2016 10:36 7,6 C 9,4 C 7,8 C 86 % 0 lf 1013,2 hPa 0,0 l/m 0 min 0 min 146 W/m 8,4 km/h (2 Bft) 95,74 %
04.11.2016 10:38 7,7 C 8,9 C 8,3 C 86 % 0 lf 1013,2 hPa 0,0 l/m 0 min 0 min 146 W/m 10,5 km/h (2 Bft) 93,62 %
04.11.2016 10:40 7,7 C 8,9 C 8,3 C 86 % 0 lf 1013,2 hPa 0,0 l/m 0 min 0 min 144 W/m 10,5 km/h (2 Bft) 94,29 %
04.11.2016 10:42 7,7 C 9,4 C 8,3 C 86 % 0 lf 1013,2 hPa 0,0 l/m 0 min 0 min 144 W/m 14,6 km/h (3 Bft) 98,25 %
04.11.2016 10:44 7,8 C 9,4 C 8,3 C 86 % 0 lf 1013,2 hPa 0,0 l/m 0 min 0 min 142 W/m 14,6 km/h (3 Bft) 97,87 %
04.11.2016 10:46 7,8 C 9,4 C 8,3 C 86 % 0 lf 1013,1 hPa 0,0 l/m 0 min 0 min 137 W/m 12,6 km/h (3 Bft) 94,59 %
04.11.2016 10:48 7,8 C 9,4 C 8,3 C 86 % 0 lf 1013,1 hPa 0,0 l/m 0 min 0 min 133 W/m 12,6 km/h (3 Bft) 97,87 %
04.11.2016 10:50 7,8 C 8,9 C 8,3 C 86 % 0 lf 1013,1 hPa 0,0 l/m 0 min 0 min 138 W/m 12,6 km/h (3 Bft) 95,74 %
04.11.2016 10:52 7,9 C 9,4 C 8,3 C 85 % 0 lf 1013,2 hPa 0,0 l/m 0 min 0 min 143 W/m 10,5 km/h (2 Bft) 97,87 %
04.11.2016 10:54 7,9 C 9,4 C 8,3 C 85 % 0 lf 1013,2 hPa 0,0 l/m 0 min 0 min 140 W/m 10,5 km/h (2 Bft) 97,87 %
04.11.2016 10:56 7,9 C 9,4 C 8,3 C 85 % 0 lf 1013,3 hPa 0,0 l/m 0 min 0 min 135 W/m 20,9 km/h (4 Bft) 97,83 %
04.11.2016 10:58 7,9 C 9,4 C 8,3 C 85 % 0 lf 1013,3 hPa 0,0 l/m 0 min 0 min 137 W/m 14,6 km/h (3 Bft) 97,87 %
04.11.2016 11:00 7,9 C 9,4 C 8,3 C 85 % 0 lf 1013,4 hPa 0,0 l/m 0 min 0 min 144 W/m 16,7 km/h (3 Bft) 100,00 %
04.11.2016 11:02 8,0 C 8,9 C 8,3 C 85 % 0 lf 1013,3 hPa 0,0 l/m 0 min 0 min 147 W/m 14,6 km/h (3 Bft) 100,00 %
04.11.2016 11:04 8,0 C 8,9 C 8,3 C 84 % 0 lf 1013,3 hPa 0,0 l/m 0 min 0 min 158 W/m 16,7 km/h (3 Bft) 97,87 %
04.11.2016 11:06 8,0 C 9,4 C 8,3 C 84 % 0 lf 1013,3 hPa 0,0 l/m 2 min 0 min 188 W/m 16,7 km/h (3 Bft) 97,83 %
04.11.2016 11:08 8,1 C 11,1 C 8,9 C 84 % 0 lf 1013,2 hPa 0,0 l/m 2 min 0 min 300 W/m 16,7 km/h (3 Bft) 95,74 %
04.11.2016 11:10 8,1 C 11,7 C 8,9 C 84 % 0 lf 1013,2 hPa 0,0 l/m 2 min 0 min 289 W/m 14,6 km/h (3 Bft) 100,00 %
04.11.2016 11:12 8,2 C 12,2 C 8,9 C 84 % 0 lf 1013,1 hPa 0,0 l/m 2 min 0 min 351 W/m 18,8 km/h (3 Bft) 97,87 %
04.11.2016 11:14 8,2 C 12,8 C 8,9 C 84 % 0 lf 1013,1 hPa 0,0 l/m 2 min 0 min 293 W/m 14,6 km/h (3 Bft) 100,00 %
04.11.2016 11:16 8,3 C 12,8 C 9,4 C 84 % 0 lf 1013,0 hPa 0,0 l/m 2 min 0 min 326 W/m 18,8 km/h (3 Bft) 97,87 %
04.11.2016 11:18 8,4 C 11,7 C 9,4 C 84 % 0 lf 1013,0 hPa 0,0 l/m 2 min 0 min 260 W/m 25,1 km/h (4 Bft) 95,65 %
04.11.2016 11:20 8,4 C 11,7 C 9,4 C 84 % 0 lf 1013,0 hPa 0,0 l/m 2 min 0 min 335 W/m 23,0 km/h (4 Bft) 95,74 %
04.11.2016 11:22 8,5 C 11,1 C 9,4 C 83 % 0 lf 1012,9 hPa 0,0 l/m 2 min 0 min 383 W/m 18,8 km/h (3 Bft) 97,87 %
04.11.2016 11:24 8,6 C 11,7 C 9,4 C 83 % 0 lf 1012,8 hPa 0,0 l/m 2 min 0 min 371 W/m 18,8 km/h (3 Bft) 100,00 %
04.11.2016 11:26 8,7 C 11,7 C 9,4 C 83 % 0 lf 1012,8 hPa 0,0 l/m 2 min 0 min 361 W/m 20,9 km/h (4 Bft) 100,00 %
04.11.2016 11:28 8,7 C 11,1 C 9,4 C 83 % 0 lf 1012,7 hPa 0,0 l/m 2 min 0 min 272 W/m 23,0 km/h (4 Bft) 100,00 %
04.11.2016 11:30 8,8 C 10,6 C 9,4 C 82 % 0 lf 1012,7 hPa 0,0 l/m 2 min 0 min 219 W/m 23,0 km/h (4 Bft) 97,83 %
04.11.2016 11:32 8,8 C 11,1 C 8,9 C 82 % 0 lf 1012,7 hPa 0,0 l/m 2 min 0 min 229 W/m 20,9 km/h (4 Bft) 97,87 %
04.11.2016 11:34 8,8 C 11,7 C 9,4 C 82 % 0 lf 1012,6 hPa 0,0 l/m 2 min 0 min 231 W/m 14,6 km/h (3 Bft) 97,87 %
04.11.2016 11:36 8,9 C 11,1 C 9,4 C 82 % 0 lf 1012,6 hPa 0,0 l/m 2 min 0 min 229 W/m 12,6 km/h (3 Bft) 93,62 %
04.11.2016 11:38 8,9 C 11,7 C 9,4 C 82 % 0 lf 1012,6 hPa 0,0 l/m 2 min 0 min 262 W/m 16,7 km/h (3 Bft) 95,74 %
04.11.2016 11:40 8,9 C 11,7 C 9,4 C 82 % 0 lf 1012,6 hPa 0,0 l/m 2 min 0 min 348 W/m 18,8 km/h (3 Bft) 97,87 %
04.11.2016 11:42 9,0 C 12,2 C 9,4 C 82 % 0 lf 1012,6 hPa 0,0 l/m 2 min 0 min 445 W/m 23,0 km/h (4 Bft) 95,65 %
04.11.2016 11:44 9,1 C 12,8 C 9,4 C 82 % 0 lf 1012,5 hPa 0,0 l/m 2 min 0 min 430 W/m 16,7 km/h (3 Bft) 97,87 %
04.11.2016 11:46 9,1 C 12,8 C 9,4 C 82 % 0 lf 1012,5 hPa 0,0 l/m 2 min 0 min 322 W/m 14,6 km/h (3 Bft) 91,49 %
04.11.2016 11:48 9,1 C 12,8 C 9,4 C 81 % 0 lf 1012,5 hPa 0,0 l/m 2 min 0 min 289 W/m 8,4 km/h (2 Bft) 95,74 %
04.11.2016 11:50 9,2 C 13,3 C 10,0 C 82 % 0 lf 1012,5 hPa 0,0 l/m 2 min 0 min 248 W/m 10,5 km/h (2 Bft) 93,62 %
04.11.2016 11:52 9,2 C 12,8 C 10,0 C 81 % 0 lf 1012,4 hPa 0,0 l/m 2 min 0 min 261 W/m 10,5 km/h (2 Bft) 93,62 %
04.11.2016 11:54 9,3 C 13,3 C 10,0 C 81 % 0 lf 1012,5 hPa 0,0 l/m 2 min 0 min 263 W/m 12,6 km/h (3 Bft) 93,48 %
04.11.2016 11:56 9,3 C 12,2 C 10,0 C 81 % 0 lf 1012,5 hPa 0,0 l/m 2 min 0 min 276 W/m 14,6 km/h (3 Bft) 93,62 %
04.11.2016 11:58 9,4 C 11,7 C 10,0 C 80 % 0 lf 1012,5 hPa 0,0 l/m 2 min 0 min 274 W/m 27,2 km/h (4 Bft) 95,74 %
04.11.2016 12:00 9,4 C 11,7 C 10,0 C 80 % 0 lf 1012,4 hPa 0,0 l/m 2 min 0 min 316 W/m 18,8 km/h (3 Bft) 95,74 %
04.11.2016 12:02 9,4 C 11,7 C 10,0 C 79 % 0 lf 1012,4 hPa 0,0 l/m 2 min 0 min 316 W/m 16,7 km/h (3 Bft) 94,00 %
04.11.2016 12:06 9,5 C 11,7 C 10,6 C 79 % 0 lf 1012,3 hPa 0,0 l/m 2 min 0 min 338 W/m 18,8 km/h (3 Bft) 94,62 %
04.11.2016 12:08 9,6 C 11,7 C 10,0 C 79 % 0 lf 1012,3 hPa 0,0 l/m 2 min 0 min 285 W/m 18,8 km/h (3 Bft) 93,62 %
04.11.2016 12:10 9,6 C 11,7 C 10,6 C 79 % 0 lf 1012,3 hPa 0,0 l/m 2 min 0 min 267 W/m 16,7 km/h (3 Bft) 93,62 %
04.11.2016 12:12 9,6 C 11,7 C 10,6 C 79 % 0 lf 1012,2 hPa 0,0 l/m 2 min 0 min 229 W/m 16,7 km/h (3 Bft) 95,74 %
04.11.2016 12:14 9,7 C 11,7 C 10,6 C 79 % 0 lf 1012,1 hPa 0,0 l/m 2 min 0 min 229 W/m 20,9 km/h (4 Bft) 91,49 %
04.11.2016 12:16 9,7 C 11,7 C 10,0 C 78 % 0 lf 1012,2 hPa 0,0 l/m 2 min 0 min 234 W/m 16,7 km/h (3 Bft) 93,48 %
04.11.2016 12:18 9,7 C 11,7 C 10,0 C 78 % 0 lf 1012,1 hPa 0,0 l/m 2 min 0 min 278 W/m 14,6 km/h (3 Bft) 95,74 %
04.11.2016 12:20 9,7 C 11,7 C 10,0 C 78 % 0 lf 1012,1 hPa 0,0 l/m 2 min 0 min 304 W/m 14,6 km/h (3 Bft) 91,49 %
04.11.2016 12:22 9,7 C 11,7 C 10,0 C 78 % 0 lf 1012,1 hPa 0,0 l/m 2 min 0 min 263 W/m 14,6 km/h (3 Bft) 93,62 %
04.11.2016 12:24 9,8 C 11,7 C 10,6 C 78 % 0 lf 1012,0 hPa 0,0 l/m 2 min 0 min 245 W/m 12,6 km/h (3 Bft) 95,74 %
04.11.2016 12:26 9,8 C 11,7 C 10,0 C 78 % 0 lf 1012,0 hPa 0,0 l/m 2 min 0 min 214 W/m 10,5 km/h (2 Bft) 97,87 %
04.11.2016 12:28 9,8 C 11,7 C 10,0 C 78 % 0 lf 1012,0 hPa 0,0 l/m 2 min 0 min 215 W/m 16,7 km/h (3 Bft) 97,83 %
04.11.2016 12:30 9,8 C 11,7 C 10,0 C 78 % 0 lf 1012,0 hPa 0,0 l/m 2 min 0 min 207 W/m 16,7 km/h (3 Bft) 93,62 %
04.11.2016 12:32 9,9 C 11,1 C 10,0 C 78 % 0 lf 1011,9 hPa 0,0 l/m 2 min 0 min 207 W/m 14,6 km/h (3 Bft) 95,74 %
04.11.2016 12:34 9,9 C 11,7 C 10,0 C 78 % 0 lf 1011,9 hPa 0,0 l/m 2 min 0 min 205 W/m 16,7 km/h (3 Bft) 94,55 %
04.11.2016 12:36 9,8 C 11,1 C 10,0 C 77 % 0 lf 1011,9 hPa 0,0 l/m 2 min 0 min 220 W/m 12,6 km/h (3 Bft) 95,74 %
04.11.2016 12:38 9,9 C 11,1 C 10,0 C 77 % 0 lf 1011,9 hPa 0,0 l/m 2 min 0 min 300 W/m 20,9 km/h (4 Bft) 89,13 %
04.11.2016 12:40 9,9 C 11,7 C 10,0 C 77 % 0 lf 1011,8 hPa 0,0 l/m 2 min 0 min 302 W/m 16,7 km/h (3 Bft) 95,74 %
04.11.2016 12:42 9,8 C 11,1 C 10,0 C 77 % 0 lf 1011,7 hPa 0,0 l/m 2 min 0 min 282 W/m 25,1 km/h (4 Bft) 97,87 %
04.11.2016 12:44 9,9 C 11,7 C 10,0 C 77 % 0 lf 1011,7 hPa 0,0 l/m 2 min 0 min 259 W/m 16,7 km/h (3 Bft) 93,62 %
04.11.2016 12:46 9,9 C 11,1 C 10,0 C 77 % 0 lf 1011,6 hPa 0,0 l/m 2 min 0 min 251 W/m 18,8 km/h (3 Bft) 93,62 %
04.11.2016 12:48 9,9 C 11,1 C 10,0 C 76 % 0 lf 1011,6 hPa 0,0 l/m 2 min 0 min 250 W/m 20,9 km/h (4 Bft) 95,65 %
04.11.2016 12:50 9,9 C 11,7 C 10,0 C 77 % 0 lf 1011,5 hPa 0,0 l/m 2 min 0 min 257 W/m 14,6 km/h (3 Bft) 97,87 %
04.11.2016 12:52 9,9 C 12,8 C 10,0 C 77 % 0 lf 1011,6 hPa 0,0 l/m 2 min 0 min 274 W/m 12,6 km/h (3 Bft) 95,74 %
04.11.2016 12:54 9,9 C 13,9 C 10,0 C 77 % 0 lf 1011,6 hPa 0,0 l/m 2 min 0 min 271 W/m 14,6 km/h (3 Bft) 95,74 %
04.11.2016 12:56 10,0 C 13,9 C 10,0 C 77 % 0 lf 1011,6 hPa 0,0 l/m 2 min 0 min 276 W/m 12,6 km/h (3 Bft) 95,74 %
04.11.2016 12:58 10,0 C 14,4 C 10,0 C 77 % 0 lf 1011,5 hPa 0,0 l/m 2 min 0 min 347 W/m 12,6 km/h (3 Bft) 91,49 %
04.11.2016 13:00 10,1 C 14,4 C 10,6 C 77 % 0 lf 1011,5 hPa 0,0 l/m 2 min 0 min 410 W/m 8,4 km/h (2 Bft) 95,65 %
04.11.2016 13:02 10,1 C 13,9 C 10,6 C 77 % 0 lf 1011,5 hPa 0,0 l/m 2 min 0 min 437 W/m 10,5 km/h (2 Bft) 95,74 %
04.11.2016 13:04 10,2 C 14,4 C 10,6 C 77 % 0 lf 1011,5 hPa 0,0 l/m 2 min 0 min 288 W/m 8,4 km/h (2 Bft) 95,74 %
04.11.2016 13:06 10,2 C 13,9 C 10,6 C 77 % 0 lf 1011,4 hPa 0,0 l/m 2 min 0 min 243 W/m 10,5 km/h (2 Bft) 97,14 %
04.11.2016 13:08 10,3 C 13,9 C 10,6 C 77 % 0 lf 1011,5 hPa 0,0 l/m 2 min 0 min 271 W/m 10,5 km/h (2 Bft) 89,58 %
04.11.2016 13:10 10,4 C 14,4 C 11,1 C 77 % 0 lf 1011,5 hPa 0,0 l/m 2 min 0 min 258 W/m 12,6 km/h (3 Bft) 97,87 %
04.11.2016 13:12 10,4 C 12,8 C 11,1 C 77 % 0 lf 1011,5 hPa 0,0 l/m 2 min 0 min 267 W/m 10,5 km/h (2 Bft) 95,74 %
04.11.2016 13:14 10,5 C 12,8 C 11,1 C 76 % 0 lf 1011,4 hPa 0,0 l/m 2 min 0 min 246 W/m 10,5 km/h (2 Bft) 93,62 %
04.11.2016 13:16 10,5 C 12,8 C 11,1 C 76 % 0 lf 1011,4 hPa 0,0 l/m 2 min 0 min 225 W/m 12,6 km/h (3 Bft) 93,48 %
04.11.2016 13:18 10,6 C 12,2 C 11,1 C 76 % 0 lf 1011,3 hPa 0,0 l/m 2 min 0 min 212 W/m 16,7 km/h (3 Bft) 97,87 %
04.11.2016 13:20 10,6 C 12,8 C 11,1 C 76 % 0 lf 1011,3 hPa 0,0 l/m 2 min 0 min 270 W/m 14,6 km/h (3 Bft) 97,87 %
04.11.2016 13:22 10,6 C 12,2 C 10,6 C 75 % 0 lf 1011,2 hPa 0,0 l/m 2 min 0 min 232 W/m 14,6 km/h (3 Bft) 94,00 %
04.11.2016 13:24 10,6 C 12,2 C 10,6 C 75 % 0 lf 1011,2 hPa 0,0 l/m 2 min 0 min 290 W/m 16,7 km/h (3 Bft) 95,74 %
04.11.2016 13:26 10,6 C 12,8 C 10,6 C 74 % 0 lf 1011,1 hPa 0,0 l/m 2 min 0 min 326 W/m 14,6 km/h (3 Bft) 97,83 %
04.11.2016 13:28 10,6 C 12,8 C 10,6 C 74 % 0 lf 1011,1 hPa 0,0 l/m 2 min 0 min 348 W/m 16,7 km/h (3 Bft) 95,74 %
04.11.2016 13:30 10,6 C 12,8 C 10,6 C 74 % 0 lf 1011,0 hPa 0,0 l/m 2 min 0 min 310 W/m 16,7 km/h (3 Bft) 95,74 %
04.11.2016 13:32 10,6 C 13,3 C 10,0 C 74 % 0 lf 1010,9 hPa 0,0 l/m 2 min 0 min 321 W/m 14,6 km/h (3 Bft) 95,74 %
04.11.2016 13:34 10,7 C 14,4 C 10,0 C 74 % 0 lf 1010,8 hPa 0,0 l/m 2 min 0 min 295 W/m 8,4 km/h (2 Bft) 97,87 %
04.11.2016 13:36 10,7 C 13,9 C 10,0 C 74 % 0 lf 1010,8 hPa 0,0 l/m 2 min 0 min 292 W/m 16,7 km/h (3 Bft) 95,74 %
04.11.2016 13:38 10,7 C 13,3 C 10,0 C 74 % 0 lf 1010,8 hPa 0,0 l/m 2 min 0 min 255 W/m 16,7 km/h (3 Bft) 97,83 %
04.11.2016 13:40 10,7 C 13,3 C 10,0 C 75 % 0 lf 1010,9 hPa 0,0 l/m 2 min 0 min 275 W/m 20,9 km/h (4 Bft) 97,87 %
04.11.2016 13:42 10,7 C 12,8 C 10,6 C 75 % 0 lf 1010,9 hPa 0,0 l/m 2 min 0 min 197 W/m 14,6 km/h (3 Bft) 97,87 %
04.11.2016 13:44 10,8 C 12,2 C 10,6 C 75 % 0 lf 1010,9 hPa 0,0 l/m 2 min 0 min 212 W/m 14,6 km/h (3 Bft) 97,87 %
04.11.2016 13:46 10,8 C 12,2 C 10,6 C 75 % 0 lf 1010,8 hPa 0,0 l/m 2 min 0 min 192 W/m 14,6 km/h (3 Bft) 98,11 %
04.11.2016 13:48 10,8 C 12,2 C 10,0 C 74 % 0 lf 1010,8 hPa 0,0 l/m 2 min 0 min 189 W/m 12,6 km/h (3 Bft) 95,65 %
04.11.2016 13:50 10,8 C 12,8 C 10,0 C 75 % 0 lf 1010,8 hPa 0,0 l/m 2 min 0 min 209 W/m 14,6 km/h (3 Bft) 97,87 %
04.11.2016 13:52 10,8 C 13,3 C 10,0 C 75 % 0 lf 1010,8 hPa 0,0 l/m 2 min 0 min 266 W/m 12,6 km/h (3 Bft) 97,87 %
04.11.2016 13:54 10,8 C 14,4 C 10,0 C 75 % 0 lf 1010,8 hPa 0,0 l/m 2 min 0 min 296 W/m 16,7 km/h (3 Bft) 93,62 %
04.11.2016 13:56 10,8 C 15,0 C 10,0 C 75 % 0 lf 1010,7 hPa 0,0 l/m 2 min 0 min 262 W/m 14,6 km/h (3 Bft) 93,62 %
04.11.2016 13:58 10,8 C 15,6 C 10,0 C 75 % 0 lf 1010,6 hPa 0,0 l/m 2 min 0 min 254 W/m 14,6 km/h (3 Bft) 97,87 %
04.11.2016 14:00 10,8 C 15,6 C 10,0 C 74 % 0 lf 1010,5 hPa 0,0 l/m 2 min 0 min 245 W/m 16,7 km/h (3 Bft) 100,00 %
04.11.2016 14:02 10,9 C 15,6 C 10,6 C 75 % 0 lf 1010,6 hPa 0,0 l/m 2 min 0 min 274 W/m 12,6 km/h (3 Bft) 100,00 %
04.11.2016 14:04 10,9 C 14,4 C 10,6 C 75 % 0 lf 1010,7 hPa 0,0 l/m 2 min 0 min 261 W/m 16,7 km/h (3 Bft) 100,00 %
04.11.2016 14:06 10,9 C 14,4 C 10,0 C 74 % 0 lf 1010,5 hPa 0,0 l/m 2 min 0 min 222 W/m 14,6 km/h (3 Bft) 95,74 %
04.11.2016 14:08 10,9 C 13,9 C 10,6 C 74 % 0 lf 1010,5 hPa 0,0 l/m 2 min 0 min 216 W/m 18,8 km/h (3 Bft) 97,87 %
04.11.2016 14:10 11,0 C 13,9 C 10,6 C 74 % 0 lf 1010,5 hPa 0,0 l/m 2 min 0 min 238 W/m 14,6 km/h (3 Bft) 97,87 %
04.11.2016 14:12 11,0 C 13,9 C 10,0 C 74 % 0 lf 1010,5 hPa 0,0 l/m 2 min 0 min 196 W/m 20,9 km/h (4 Bft) 93,62 %
04.11.2016 14:14 11,0 C 13,3 C 10,0 C 74 % 0 lf 1010,5 hPa 0,0 l/m 2 min 0 min 165 W/m 16,7 km/h (3 Bft) 97,87 %
04.11.2016 14:16 11,0 C 12,8 C 10,0 C 74 % 0 lf 1010,4 hPa 0,0 l/m 2 min 0 min 169 W/m 16,7 km/h (3 Bft) 97,83 %
04.11.2016 14:18 11,0 C 13,3 C 10,0 C 73 % 0 lf 1010,4 hPa 0,0 l/m 2 min 0 min 168 W/m 12,6 km/h (3 Bft) 97,87 %
04.11.2016 14:20 10,9 C 12,8 C 10,0 C 73 % 0 lf 1010,3 hPa 0,0 l/m 2 min 0 min 158 W/m 16,7 km/h (3 Bft) 97,87 %
04.11.2016 14:22 10,9 C 12,2 C 10,0 C 74 % 0 lf 1010,3 hPa 0,0 l/m 0 min 0 min 142 W/m 16,7 km/h (3 Bft) 93,62 %
04.11.2016 14:24 10,9 C 11,7 C 10,0 C 74 % 0 lf 1010,2 hPa 0,0 l/m 0 min 0 min 145 W/m 16,7 km/h (3 Bft) 93,62 %
04.11.2016 14:26 10,9 C 12,2 C 10,0 C 74 % 0 lf 1010,3 hPa 0,0 l/m 2 min 0 min 161 W/m 16,7 km/h (3 Bft) 95,74 %
04.11.2016 14:28 10,8 C 11,7 C 10,0 C 74 % 0 lf 1010,3 hPa 0,0 l/m 0 min 0 min 145 W/m 18,8 km/h (3 Bft) 95,65 %
04.11.2016 14:30 10,8 C 11,7 C 10,0 C 74 % 0 lf 1010,2 hPa 0,0 l/m 2 min 0 min 152 W/m 16,7 km/h (3 Bft) 95,74 %
04.11.2016 14:32 10,8 C 12,2 C 10,0 C 74 % 0 lf 1010,1 hPa 0,0 l/m 2 min 0 min 153 W/m 16,7 km/h (3 Bft) 95,74 %
04.11.2016 14:34 10,8 C 11,7 C 10,0 C 74 % 0 lf 1010,1 hPa 0,0 l/m 0 min 0 min 142 W/m 16,7 km/h (3 Bft) 95,74 %
04.11.2016 14:36 10,7 C 11,7 C 10,0 C 74 % 0 lf 1010,1 hPa 0,0 l/m 0 min 0 min 133 W/m 14,6 km/h (3 Bft) 93,62 %
04.11.2016 14:38 10,7 C 11,7 C 10,0 C 74 % 0 lf 1010,1 hPa 0,0 l/m 0 min 0 min 129 W/m 14,6 km/h (3 Bft) 93,62 %
04.11.2016 14:40 10,7 C 11,7 C 10,0 C 75 % 0 lf 1010,0 hPa 0,0 l/m 0 min 0 min 128 W/m 14,6 km/h (3 Bft) 93,48 %
04.11.2016 14:42 10,7 C 11,7 C 10,0 C 75 % 0 lf 1010,1 hPa 0,0 l/m 0 min 0 min 130 W/m 14,6 km/h (3 Bft) 91,49 %
04.11.2016 14:44 10,7 C 11,7 C 10,0 C 75 % 0 lf 1010,1 hPa 0,0 l/m 2 min 0 min 137 W/m 16,7 km/h (3 Bft) 95,74 %
04.11.2016 14:46 10,7 C 11,7 C 10,0 C 75 % 0 lf 1010,0 hPa 0,0 l/m 2 min 0 min 145 W/m 14,6 km/h (3 Bft) 95,74 %
04.11.2016 14:48 10,7 C 11,7 C 10,0 C 75 % 0 lf 1009,9 hPa 0,0 l/m 2 min 0 min 141 W/m 14,6 km/h (3 Bft) 95,74 %
04.11.2016 14:50 10,7 C 11,7 C 10,0 C 75 % 0 lf 1009,9 hPa 0,0 l/m 2 min 0 min 139 W/m 16,7 km/h (3 Bft) 95,65 %
04.11.2016 14:52 10,6 C 11,7 C 10,0 C 75 % 0 lf 1009,9 hPa 0,0 l/m 2 min 0 min 139 W/m 12,6 km/h (3 Bft) 91,49 %
04.11.2016 14:54 10,6 C 11,1 C 10,0 C 75 % 0 lf 1009,9 hPa 0,0 l/m 2 min 0 min 135 W/m 12,6 km/h (3 Bft) 95,74 %
04.11.2016 14:56 10,6 C 11,1 C 10,0 C 76 % 0 lf 1009,9 hPa 0,0 l/m 2 min 0 min 139 W/m 16,7 km/h (3 Bft) 93,62 %
04.11.2016 14:58 10,6 C 11,1 C 10,0 C 76 % 0 lf 1009,9 hPa 0,0 l/m 2 min 0 min 139 W/m 16,7 km/h (3 Bft) 95,74 %
04.11.2016 15:00 10,6 C 11,7 C 10,0 C 76 % 0 lf 1009,9 hPa 0,0 l/m 2 min 0 min 135 W/m 14,6 km/h (3 Bft) 95,74 %
04.11.2016 15:02 10,6 C 11,1 C 10,0 C 76 % 0 lf 1009,8 hPa 0,0 l/m 2 min 0 min 128 W/m 18,8 km/h (3 Bft) 93,48 %
04.11.2016 15:04 10,5 C 11,1 C 10,0 C 76 % 0 lf 1009,8 hPa 0,0 l/m 0 min 0 min 120 W/m 23,0 km/h (4 Bft) 95,74 %
04.11.2016 15:06 10,5 C 10,6 C 10,0 C 76 % 0 lf 1009,8 hPa 0,0 l/m 0 min 0 min 110 W/m 18,8 km/h (3 Bft) 90,57 %
04.11.2016 15:08 10,4 C 10,6 C 10,0 C 76 % 0 lf 1009,7 hPa 0,0 l/m 0 min 0 min 101 W/m 14,6 km/h (3 Bft) 97,87 %
04.11.2016 15:10 10,4 C 10,6 C 10,0 C 76 % 0 lf 1009,7 hPa 0,0 l/m 0 min 0 min 93 W/m 16,7 km/h (3 Bft) 95,74 %
04.11.2016 15:12 10,4 C 10,6 C 9,4 C 77 % 0 lf 1009,7 hPa 0,0 l/m 0 min 0 min 85 W/m 12,6 km/h (3 Bft) 91,30 %
04.11.2016 15:14 10,4 C 10,6 C 9,4 C 77 % 0 lf 1009,7 hPa 0,0 l/m 0 min 0 min 80 W/m 16,7 km/h (3 Bft) 95,74 %
04.11.2016 15:16 10,4 C 10,6 C 9,4 C 77 % 0 lf 1009,6 hPa 0,0 l/m 0 min 0 min 77 W/m 18,8 km/h (3 Bft) 95,12 %
04.11.2016 15:18 10,4 C 10,6 C 9,4 C 77 % 0 lf 1009,6 hPa 0,0 l/m 0 min 0 min 76 W/m 16,7 km/h (3 Bft) 95,74 %
04.11.2016 15:20 10,3 C 10,6 C 9,4 C 77 % 0 lf 1009,5 hPa 0,0 l/m 0 min 0 min 79 W/m 10,5 km/h (2 Bft) 93,62 %
04.11.2016 15:22 10,3 C 10,6 C 9,4 C 77 % 0 lf 1009,6 hPa 0,0 l/m 0 min 0 min 85 W/m 12,6 km/h (3 Bft) 95,74 %
04.11.2016 15:24 10,3 C 10,6 C 9,4 C 77 % 0 lf 1009,5 hPa 0,0 l/m 0 min 0 min 94 W/m 14,6 km/h (3 Bft) 95,74 %
04.11.2016 15:26 10,3 C 10,6 C 9,4 C 77 % 0 lf 1009,5 hPa 0,0 l/m 0 min 0 min 98 W/m 12,6 km/h (3 Bft) 96,36 %
04.11.2016 15:28 10,3 C 10,6 C 9,4 C 77 % 0 lf 1009,6 hPa 0,0 l/m 2 min 0 min 99 W/m 18,8 km/h (3 Bft) 93,62 %
04.11.2016 15:30 10,3 C 10,6 C 9,4 C 77 % 0 lf 1009,5 hPa 0,0 l/m 2 min 0 min 100 W/m 12,6 km/h (3 Bft) 95,74 %
04.11.2016 15:32 10,2 C 10,6 C 9,4 C 77 % 0 lf 1009,4 hPa 0,0 l/m 0 min 0 min 92 W/m 12,6 km/h (3 Bft) 91,49 %
04.11.2016 15:34 10,2 C 10,6 C 9,4 C 78 % 0 lf 1009,4 hPa 0,0 l/m 0 min 0 min 88 W/m 14,6 km/h (3 Bft) 97,87 %
04.11.2016 15:36 10,2 C 10,6 C 9,4 C 77 % 0 lf 1009,5 hPa 0,0 l/m 0 min 0 min 79 W/m 12,6 km/h (3 Bft) 100,00 %
04.11.2016 15:38 10,2 C 10,6 C 9,4 C 78 % 0 lf 1009,5 hPa 0,0 l/m 0 min 0 min 72 W/m 12,6 km/h (3 Bft) 97,87 %
04.11.2016 15:40 10,2 C 10,6 C 9,4 C 77 % 0 lf 1009,5 hPa 0,0 l/m 0 min 0 min 68 W/m 16,7 km/h (3 Bft) 97,87 %
04.11.2016 15:42 10,2 C 10,6 C 8,9 C 77 % 0 lf 1009,4 hPa 0,0 l/m 0 min 0 min 65 W/m 16,7 km/h (3 Bft) 97,87 %
04.11.2016 15:44 10,2 C 10,6 C 8,9 C 77 % 0 lf 1009,4 hPa 0,0 l/m 0 min 0 min 65 W/m 18,8 km/h (3 Bft) 100,00 %
04.11.2016 15:46 10,2 C 10,6 C 8,9 C 77 % 0 lf 1009,4 hPa 0,0 l/m 0 min 0 min 64 W/m 16,7 km/h (3 Bft) 91,30 %
04.11.2016 15:48 10,2 C 10,6 C 8,9 C 77 % 0 lf 1009,4 hPa 0,0 l/m 0 min 0 min 63 W/m 16,7 km/h (3 Bft) 98,00 %
04.11.2016 15:50 10,1 C 10,6 C 8,9 C 77 % 0 lf 1009,4 hPa 0,0 l/m 0 min 0 min 65 W/m 12,6 km/h (3 Bft) 100,00 %
04.11.2016 15:52 10,1 C 10,6 C 8,9 C 77 % 0 lf 1009,3 hPa 0,0 l/m 0 min 0 min 65 W/m 12,6 km/h (3 Bft) 97,87 %
04.11.2016 15:54 10,1 C 10,6 C 8,9 C 77 % 0 lf 1009,3 hPa 0,0 l/m 0 min 0 min 64 W/m 14,6 km/h (3 Bft) 100,00 %
04.11.2016 15:56 10,1 C 10,6 C 8,9 C 77 % 0 lf 1009,3 hPa 0,0 l/m 0 min 0 min 62 W/m 25,1 km/h (4 Bft) 100,00 %
04.11.2016 15:58 10,1 C 10,6 C 8,9 C 77 % 0 lf 1009,2 hPa 0,0 l/m 0 min 0 min 58 W/m 14,6 km/h (3 Bft) 100,00 %
04.11.2016 16:00 10,1 C 10,0 C 8,9 C 77 % 0 lf 1009,3 hPa 0,0 l/m 0 min 0 min 54 W/m 14,6 km/h (3 Bft) 95,74 %
04.11.2016 16:02 10,1 C 10,0 C 8,9 C 77 % 0 lf 1009,3 hPa 0,0 l/m 0 min 0 min 52 W/m 18,8 km/h (3 Bft) 93,88 %
04.11.2016 16:04 10,1 C 10,0 C 8,9 C 78 % 0 lf 1009,3 hPa 0,0 l/m 0 min 0 min 49 W/m 12,6 km/h (3 Bft) 97,87 %
04.11.2016 16:06 10,0 C 10,0 C 8,3 C 78 % 0 lf 1009,3 hPa 0,0 l/m 0 min 0 min 47 W/m 10,5 km/h (2 Bft) 100,00 %
04.11.2016 16:08 10,0 C 10,0 C 8,3 C 78 % 0 lf 1009,3 hPa 0,0 l/m 0 min 0 min 46 W/m 14,6 km/h (3 Bft) 100,00 %
04.11.2016 16:10 10,0 C 10,0 C 8,3 C 78 % 0 lf 1009,3 hPa 0,0 l/m 0 min 0 min 44 W/m 16,7 km/h (3 Bft) 100,00 %
04.11.2016 16:12 9,9 C 10,0 C 8,3 C 78 % 0 lf 1009,3 hPa 0,0 l/m 0 min 0 min 42 W/m 12,6 km/h (3 Bft) 96,36 %
04.11.2016 16:14 9,9 C 10,0 C 8,3 C 78 % 0 lf 1009,3 hPa 0,0 l/m 0 min 0 min 40 W/m 14,6 km/h (3 Bft) 100,00 %
04.11.2016 16:16 9,9 C 10,0 C 8,3 C 78 % 0 lf 1009,3 hPa 0,0 l/m 0 min 0 min 39 W/m 14,6 km/h (3 Bft) 100,00 %
04.11.2016 16:18 9,9 C 9,4 C 8,3 C 78 % 0 lf 1009,3 hPa 0,0 l/m 0 min 0 min 36 W/m 10,5 km/h (2 Bft) 100,00 %
04.11.2016 16:20 9,8 C 9,4 C 7,8 C 78 % 0 lf 1009,3 hPa 0,0 l/m 0 min 0 min 33 W/m 16,7 km/h (3 Bft) 95,74 %
04.11.2016 16:22 9,8 C 9,4 C 7,8 C 79 % 0 lf 1009,3 hPa 0,0 l/m 0 min 0 min 30 W/m 10,5 km/h (2 Bft) 97,83 %
04.11.2016 16:24 9,8 C 9,4 C 7,8 C 79 % 0 lf 1009,3 hPa 0,0 l/m 0 min 0 min 27 W/m 10,5 km/h (2 Bft) 95,74 %
04.11.2016 16:26 9,8 C 9,4 C 7,8 C 79 % 0 lf 1009,3 hPa 0,0 l/m 0 min 0 min 24 W/m 12,6 km/h (3 Bft) 97,87 %
04.11.2016 16:28 9,7 C 9,4 C 7,8 C 79 % 0 lf 1009,2 hPa 0,0 l/m 0 min 0 min 22 W/m 10,5 km/h (2 Bft) 97,87 %
04.11.2016 16:30 9,7 C 9,4 C 7,8 C 79 % 0 lf 1009,2 hPa 0,0 l/m 0 min 0 min 21 W/m 8,4 km/h (2 Bft) 93,62 %
04.11.2016 16:32 9,7 C 9,4 C 7,8 C 79 % 0 lf 1009,3 hPa 0,0 l/m 0 min 0 min 20 W/m 14,6 km/h (3 Bft) 95,65 %
04.11.2016 16:34 9,6 C 9,4 C 7,8 C 79 % 0 lf 1009,2 hPa 0,0 l/m 0 min 0 min 19 W/m 10,5 km/h (2 Bft) 100,00 %
04.11.2016 16:36 9,6 C 9,4 C 7,8 C 79 % 0 lf 1009,1 hPa 0,0 l/m 0 min 0 min 19 W/m 14,6 km/h (3 Bft) 97,87 %
04.11.2016 16:38 9,5 C 9,4 C 7,8 C 80 % 0 lf 1009,1 hPa 0,0 l/m 0 min 0 min 18 W/m 12,6 km/h (3 Bft) 97,87 %
04.11.2016 16:40 9,5 C 9,4 C 7,8 C 80 % 0 lf 1009,0 hPa 0,0 l/m 0 min 0 min 17 W/m 10,5 km/h (2 Bft) 97,87 %
04.11.2016 16:42 9,4 C 8,9 C 7,8 C 80 % 0 lf 1008,9 hPa 0,0 l/m 0 min 0 min 16 W/m 8,4 km/h (2 Bft) 95,74 %
04.11.2016 16:44 9,4 C 8,9 C 7,2 C 80 % 0 lf 1008,9 hPa 0,0 l/m 0 min 0 min 15 W/m 10,5 km/h (2 Bft) 95,65 %
04.11.2016 16:46 9,4 C 8,9 C 7,2 C 80 % 0 lf 1008,9 hPa 0,0 l/m 0 min 0 min 14 W/m 10,5 km/h (2 Bft) 97,87 %
04.11.2016 16:48 9,3 C 8,9 C 7,2 C 80 % 0 lf 1008,8 hPa 0,0 l/m 0 min 0 min 12 W/m 8,4 km/h (2 Bft) 93,62 %
04.11.2016 16:50 9,3 C 8,9 C 7,2 C 80 % 0 lf 1008,9 hPa 0,0 l/m 0 min 0 min 12 W/m 10,5 km/h (2 Bft) 93,62 %
04.11.2016 16:52 9,3 C 8,9 C 7,2 C 80 % 0 lf 1008,9 hPa 0,0 l/m 0 min 0 min 11 W/m 8,4 km/h (2 Bft) 95,74 %
04.11.2016 16:54 9,2 C 8,9 C 7,2 C 80 % 0 lf 1008,8 hPa 0,0 l/m 0 min 0 min 10 W/m 6,3 km/h (2 Bft) 93,62 %
04.11.2016 16:56 9,2 C 8,9 C 7,2 C 81 % 0 lf 1008,8 hPa 0,0 l/m 0 min 0 min 8 W/m 8,4 km/h (2 Bft) 95,65 %
04.11.2016 16:58 9,2 C 8,3 C 7,2 C 81 % 0 lf 1008,8 hPa 0,0 l/m 0 min 0 min 7 W/m 8,4 km/h (2 Bft) 91,49 %
04.11.2016 17:00 9,2 C 8,3 C 7,2 C 81 % 0 lf 1008,8 hPa 0,0 l/m 0 min 0 min 6 W/m 8,4 km/h (2 Bft) 93,62 %
04.11.2016 17:02 9,1 C 8,3 C 6,7 C 81 % 0 lf 1008,8 hPa 0,0 l/m 0 min 0 min 5 W/m 6,3 km/h (2 Bft) 93,62 %
04.11.2016 17:04 9,1 C 8,3 C 6,7 C 81 % 0 lf 1008,8 hPa 0,0 l/m 0 min 0 min 3 W/m 8,4 km/h (2 Bft) 86,84 %
04.11.2016 17:06 9,1 C 8,3 C 6,7 C 81 % 0 lf 1008,8 hPa 0,0 l/m 0 min 0 min 0 W/m 8,4 km/h (2 Bft) 94,00 %
04.11.2016 17:08 9,1 C 8,3 C 6,7 C 82 % 0 lf 1008,8 hPa 0,0 l/m 0 min 0 min 0 W/m 8,4 km/h (2 Bft) 93,62 %
04.11.2016 17:10 9,0 C 8,3 C 6,7 C 82 % 0 lf 1008,8 hPa 0,0 l/m 0 min 0 min 0 W/m 6,3 km/h (2 Bft) 91,30 %
04.11.2016 17:12 9,0 C 8,3 C 6,7 C 82 % 0 lf 1008,8 hPa 0,0 l/m 0 min 0 min 0 W/m 8,4 km/h (2 Bft) 93,62 %
04.11.2016 17:14 8,9 C 8,3 C 6,7 C 82 % 0 lf 1008,7 hPa 0,0 l/m 0 min 0 min 0 W/m 6,3 km/h (2 Bft) 91,49 %
04.11.2016 17:16 8,9 C 8,3 C 6,7 C 83 % 0 lf 1008,8 hPa 0,0 l/m 0 min 0 min 0 W/m 6,3 km/h (2 Bft) 95,74 %
04.11.2016 17:18 8,9 C 8,3 C 6,7 C 83 % 0 lf 1008,7 hPa 0,0 l/m 0 min 0 min 0 W/m 6,3 km/h (2 Bft) 91,49 %
04.11.2016 17:20 8,9 C 8,3 C 6,7 C 83 % 0 lf 1008,7 hPa 0,0 l/m 0 min 0 min 0 W/m 8,4 km/h (2 Bft) 93,48 %
04.11.2016 17:22 8,8 C 8,3 C 6,7 C 83 % 0 lf 1008,7 hPa 0,0 l/m 0 min 0 min 0 W/m 8,4 km/h (2 Bft) 95,74 %
04.11.2016 17:24 8,8 C 8,3 C 6,7 C 83 % 0 lf 1008,7 hPa 0,0 l/m 0 min 0 min 0 W/m 8,4 km/h (2 Bft) 95,74 %
04.11.2016 17:26 8,8 C 8,3 C 6,7 C 83 % 0 lf 1008,7 hPa 0,0 l/m 0 min 0 min 0 W/m 8,4 km/h (2 Bft) 95,74 %
04.11.2016 17:28 8,7 C 8,3 C 6,7 C 83 % 0 lf 1008,7 hPa 0,0 l/m 0 min 0 min 0 W/m 10,5 km/h (2 Bft) 91,49 %
04.11.2016 17:30 8,7 C 8,3 C 6,7 C 84 % 0 lf 1008,7 hPa 0,0 l/m 0 min 0 min 0 W/m 10,5 km/h (2 Bft) 95,74 %
04.11.2016 17:32 8,7 C 8,3 C 6,7 C 84 % 0 lf 1008,7 hPa 0,0 l/m 0 min 0 min 0 W/m 8,4 km/h (2 Bft) 95,65 %
04.11.2016 17:34 8,6 C 8,3 C 6,7 C 84 % 0 lf 1008,7 hPa 0,0 l/m 0 min 0 min 0 W/m 8,4 km/h (2 Bft) 93,62 %
04.11.2016 17:36 8,6 C 8,3 C 6,7 C 84 % 0 lf 1008,7 hPa 0,0 l/m 0 min 0 min 0 W/m 8,4 km/h (2 Bft) 97,87 %
04.11.2016 17:38 8,6 C 8,3 C 6,7 C 84 % 0 lf 1008,6 hPa 0,0 l/m 0 min 0 min 0 W/m 10,5 km/h (2 Bft) 97,73 %
04.11.2016 17:40 8,5 C 8,3 C 6,7 C 84 % 0 lf 1008,5 hPa 0,0 l/m 0 min 0 min 0 W/m 12,6 km/h (3 Bft) 93,62 %
04.11.2016 17:42 8,4 C 8,3 C 6,7 C 84 % 0 lf 1008,5 hPa 0,0 l/m 0 min 0 min 0 W/m 10,5 km/h (2 Bft) 97,87 %
04.11.2016 17:44 8,4 C 8,3 C 6,7 C 85 % 0 lf 1008,4 hPa 0,0 l/m 0 min 0 min 0 W/m 12,6 km/h (3 Bft) 97,83 %
04.11.2016 17:46 8,4 C 8,3 C 6,7 C 85 % 0 lf 1008,4 hPa 0,0 l/m 0 min 0 min 0 W/m 14,6 km/h (3 Bft) 94,00 %
04.11.2016 17:48 8,4 C 8,3 C 6,7 C 85 % 0 lf 1008,4 hPa 0,0 l/m 0 min 0 min 0 W/m 12,6 km/h (3 Bft) 93,62 %
04.11.2016 17:50 8,3 C 8,3 C 6,7 C 85 % 0 lf 1008,3 hPa 0,0 l/m 0 min 0 min 0 W/m 10,5 km/h (2 Bft) 95,74 %
04.11.2016 17:52 8,3 C 7,8 C 6,7 C 85 % 0 lf 1008,3 hPa 0,0 l/m 0 min 0 min 0 W/m 8,4 km/h (2 Bft) 95,74 %
04.11.2016 17:54 8,3 C 7,8 C 6,7 C 85 % 0 lf 1008,2 hPa 0,0 l/m 0 min 0 min 0 W/m 10,5 km/h (2 Bft) 100,00 %
04.11.2016 17:56 8,3 C 7,8 C 6,7 C 86 % 0 lf 1008,3 hPa 0,0 l/m 0 min 0 min 0 W/m 8,4 km/h (2 Bft) 100,00 %
04.11.2016 17:58 8,2 C 7,8 C 6,1 C 86 % 0 lf 1008,4 hPa 0,0 l/m 0 min 0 min 0 W/m 12,6 km/h (3 Bft) 100,00 %
04.11.2016 18:00 8,2 C 7,8 C 6,1 C 86 % 0 lf 1008,3 hPa 0,0 l/m 0 min 0 min 0 W/m 10,5 km/h (2 Bft) 100,00 %
04.11.2016 18:02 8,2 C 7,8 C 6,1 C 86 % 0 lf 1008,3 hPa 0,0 l/m 0 min 0 min 0 W/m 8,4 km/h (2 Bft) 96,23 %
04.11.2016 18:04 8,2 C 7,8 C 6,1 C 86 % 0 lf 1008,2 hPa 0,0 l/m 0 min 0 min 0 W/m 10,5 km/h (2 Bft) 97,44 %
04.11.2016 18:06 8,2 C 7,8 C 6,1 C 86 % 0 lf 1008,2 hPa 0,0 l/m 0 min 0 min 0 W/m 10,5 km/h (2 Bft) 100,00 %
04.11.2016 18:08 8,2 C 7,8 C 6,1 C 86 % 0 lf 1008,2 hPa 0,0 l/m 0 min 0 min 0 W/m 10,5 km/h (2 Bft) 93,75 %
04.11.2016 18:10 8,1 C 7,8 C 6,1 C 86 % 0 lf 1008,2 hPa 0,0 l/m 0 min 0 min 0 W/m 8,4 km/h (2 Bft) 97,87 %
04.11.2016 18:12 8,1 C 7,8 C 6,1 C 86 % 0 lf 1008,2 hPa 0,0 l/m 0 min 0 min 0 W/m 8,4 km/h (2 Bft) 100,00 %
04.11.2016 18:14 8,1 C 7,8 C 6,1 C 86 % 0 lf 1008,2 hPa 0,0 l/m 0 min 0 min 0 W/m 6,3 km/h (2 Bft) 97,87 %
04.11.2016 18:16 8,1 C 7,8 C 6,1 C 86 % 0 lf 1008,2 hPa 0,0 l/m 0 min 0 min 0 W/m 10,5 km/h (2 Bft) 100,00 %
04.11.2016 18:18 8,1 C 7,8 C 6,7 C 87 % 0 lf 1008,2 hPa 0,0 l/m 0 min 0 min 0 W/m 8,4 km/h (2 Bft) 100,00 %
04.11.2016 18:20 8,0 C 7,8 C 6,7 C 87 % 0 lf 1008,2 hPa 0,0 l/m 0 min 0 min 0 W/m 10,5 km/h (2 Bft) 95,65 %
04.11.2016 18:22 8,0 C 7,8 C 6,7 C 87 % 0 lf 1008,1 hPa 0,0 l/m 0 min 0 min 0 W/m 10,5 km/h (2 Bft) 97,87 %
04.11.2016 18:24 8,0 C 7,8 C 6,7 C 87 % 0 lf 1008,2 hPa 0,0 l/m 0 min 0 min 0 W/m 12,6 km/h (3 Bft) 98,15 %
04.11.2016 18:26 8,0 C 7,8 C 6,7 C 87 % 0 lf 1008,2 hPa 0,0 l/m 0 min 0 min 0 W/m 6,3 km/h (2 Bft) 95,74 %
04.11.2016 18:28 7,9 C 7,8 C 6,7 C 87 % 0 lf 1008,2 hPa 0,0 l/m 0 min 0 min 0 W/m 8,4 km/h (2 Bft) 97,83 %
04.11.2016 18:30 7,9 C 7,8 C 6,7 C 87 % 0 lf 1008,2 hPa 0,0 l/m 0 min 0 min 0 W/m 8,4 km/h (2 Bft) 93,62 %
04.11.2016 18:32 7,9 C 7,8 C 6,7 C 87 % 0 lf 1008,1 hPa 0,0 l/m 0 min 0 min 0 W/m 8,4 km/h (2 Bft) 95,74 %
04.11.2016 18:34 7,9 C 7,8 C 6,7 C 87 % 0 lf 1008,1 hPa 0,0 l/m 0 min 0 min 0 W/m 10,5 km/h (2 Bft) 94,74 %
04.11.2016 18:36 7,9 C 7,8 C 6,7 C 87 % 0 lf 1008,0 hPa 0,0 l/m 0 min 0 min 0 W/m 10,5 km/h (2 Bft) 95,92 %
04.11.2016 18:38 7,9 C 7,8 C 6,7 C 87 % 0 lf 1008,0 hPa 0,0 l/m 0 min 0 min 0 W/m 8,4 km/h (2 Bft) 85,11 %
04.11.2016 18:40 7,9 C 7,8 C 6,7 C 87 % 0 lf 1008,0 hPa 0,0 l/m 0 min 0 min 0 W/m 8,4 km/h (2 Bft) 97,87 %
04.11.2016 18:42 7,9 C 7,8 C 6,7 C 87 % 0 lf 1008,0 hPa 0,0 l/m 0 min 0 min 0 W/m 8,4 km/h (2 Bft) 96,23 %
04.11.2016 18:44 7,8 C 7,8 C 6,1 C 87 % 0 lf 1008,0 hPa 0,0 l/m 0 min 0 min 0 W/m 6,3 km/h (2 Bft) 91,49 %
04.11.2016 18:46 7,8 C 7,8 C 6,1 C 88 % 0 lf 1008,0 hPa 0,0 l/m 0 min 0 min 0 W/m 6,3 km/h (2 Bft) 94,74 %
04.11.2016 18:48 7,8 C 7,8 C 6,1 C 88 % 0 lf 1008,0 hPa 0,0 l/m 0 min 0 min 0 W/m 8,4 km/h (2 Bft) 95,92 %
04.11.2016 18:50 7,8 C 7,8 C 6,1 C 88 % 0 lf 1008,0 hPa 0,0 l/m 0 min 0 min 0 W/m 4,2 km/h (1 Bft) 93,62 %
04.11.2016 18:52 7,8 C 7,8 C 6,1 C 88 % 0 lf 1007,9 hPa 0,0 l/m 0 min 0 min 0 W/m 8,4 km/h (2 Bft) 96,23 %
04.11.2016 18:54 7,8 C 7,8 C 6,1 C 88 % 0 lf 1007,9 hPa 0,0 l/m 0 min 0 min 0 W/m 6,3 km/h (2 Bft) 97,37 %
04.11.2016 18:56 7,8 C 7,8 C 6,1 C 88 % 0 lf 1007,9 hPa 0,0 l/m 0 min 0 min 0 W/m 6,3 km/h (2 Bft) 93,88 %
04.11.2016 18:58 7,8 C 7,8 C 6,1 C 88 % 0 lf 1007,8 hPa 0,0 l/m 0 min 0 min 0 W/m 6,3 km/h (2 Bft) 95,74 %
04.11.2016 19:00 7,8 C 7,8 C 6,1 C 88 % 0 lf 1007,8 hPa 0,0 l/m 0 min 0 min 0 W/m 6,3 km/h (2 Bft) 94,44 %
04.11.2016 19:02 7,8 C 7,8 C 6,1 C 88 % 0 lf 1007,8 hPa 0,0 l/m 0 min 0 min 0 W/m 6,3 km/h (2 Bft) 97,62 %
04.11.2016 19:04 7,7 C 7,8 C 6,1 C 88 % 0 lf 1007,8 hPa 0,0 l/m 0 min 0 min 0 W/m 6,3 km/h (2 Bft) 95,74 %
04.11.2016 19:06 7,7 C 7,8 C 6,1 C 88 % 0 lf 1007,8 hPa 0,0 l/m 0 min 0 min 0 W/m 4,2 km/h (1 Bft) 93,62 %
04.11.2016 19:08 7,7 C 7,8 C 6,1 C 87 % 0 lf 1007,8 hPa 0,0 l/m 0 min 0 min 0 W/m 6,3 km/h (2 Bft) 91,30 %
04.11.2016 19:10 7,7 C 7,8 C 6,1 C 87 % 0 lf 1007,8 hPa 0,0 l/m 0 min 0 min 0 W/m 6,3 km/h (2 Bft) 91,49 %
04.11.2016 19:11 7,7 C 7,8 C 6,1 C 87 % 0 lf 1007,8 hPa 0,0 l/m 0 min 0 min 0 W/m 8,4 km/h (2 Bft) 91,30 %
04.11.2016 19:12 7,7 C 7,8 C 6,1 C 87 % 0 lf 1007,7 hPa 0,0 l/m 0 min 0 min 0 W/m 8,4 km/h (2 Bft) 91,30 %
04.11.2016 19:14 7,7 C 7,8 C 6,1 C 87 % 0 lf 1007,7 hPa 0,0 l/m 0 min 0 min 0 W/m 6,3 km/h (2 Bft) 88,00 %
04.11.2016 19:16 7,7 C 7,8 C 6,1 C 87 % 0 lf 1007,7 hPa 0,0 l/m 0 min 0 min 0 W/m 6,3 km/h (2 Bft) 91,30 %
04.11.2016 19:18 7,7 C 7,8 C 6,1 C 87 % 0 lf 1007,7 hPa 0,0 l/m 0 min 0 min 0 W/m 8,4 km/h (2 Bft) 89,36 %
04.11.2016 19:20 7,7 C 7,8 C 6,1 C 88 % 0 lf 1007,7 hPa 0,0 l/m 0 min 0 min 0 W/m 8,4 km/h (2 Bft) 93,62 %
04.11.2016 19:22 7,7 C 7,8 C 6,1 C 88 % 0 lf 1007,7 hPa 0,0 l/m 0 min 0 min 0 W/m 6,3 km/h (2 Bft) 95,74 %
04.11.2016 19:24 7,7 C 7,8 C 6,1 C 88 % 0 lf 1007,7 hPa 0,0 l/m 0 min 0 min 0 W/m 8,4 km/h (2 Bft) 95,74 %
04.11.2016 19:26 7,7 C 7,8 C 6,1 C 88 % 0 lf 1007,7 hPa 0,0 l/m 0 min 0 min 0 W/m 10,5 km/h (2 Bft) 93,62 %
04.11.2016 19:28 7,7 C 7,8 C 6,1 C 88 % 0 lf 1007,6 hPa 0,0 l/m 0 min 0 min 0 W/m 6,3 km/h (2 Bft) 95,74 %
04.11.2016 19:30 7,6 C 7,8 C 6,1 C 88 % 0 lf 1007,6 hPa 0,0 l/m 0 min 0 min 0 W/m 8,4 km/h (2 Bft) 91,30 %
04.11.2016 19:32 7,6 C 7,8 C 6,1 C 88 % 0 lf 1007,5 hPa 0,0 l/m 0 min 0 min 0 W/m 8,4 km/h (2 Bft) 95,74 %
04.11.2016 19:34 7,6 C 7,8 C 6,1 C 87 % 0 lf 1007,5 hPa 0,0 l/m 0 min 0 min 0 W/m 8,4 km/h (2 Bft) 93,62 %
04.11.2016 19:36 7,6 C 7,8 C 6,1 C 87 % 0 lf 1007,4 hPa 0,0 l/m 0 min 0 min 0 W/m 10,5 km/h (2 Bft) 97,73 %
04.11.2016 19:38 7,6 C 7,8 C 6,1 C 87 % 0 lf 1007,5 hPa 0,0 l/m 0 min 0 min 0 W/m 6,3 km/h (2 Bft) 95,74 %
04.11.2016 19:40 7,6 C 7,8 C 6,1 C 87 % 0 lf 1007,5 hPa 0,0 l/m 0 min 0 min 0 W/m 6,3 km/h (2 Bft) 95,65 %
04.11.2016 19:42 7,6 C 7,8 C 6,1 C 87 % 0 lf 1007,5 hPa 0,0 l/m 0 min 0 min 0 W/m 10,5 km/h (2 Bft) 95,74 %
04.11.2016 19:44 7,6 C 7,8 C 6,1 C 87 % 0 lf 1007,5 hPa 0,0 l/m 0 min 0 min 0 W/m 10,5 km/h (2 Bft) 95,74 %
04.11.2016 19:46 7,6 C 7,8 C 6,1 C 87 % 0 lf 1007,3 hPa 0,0 l/m 0 min 0 min 0 W/m 8,4 km/h (2 Bft) 95,74 %
04.11.2016 19:48 7,6 C 7,8 C 6,1 C 87 % 0 lf 1007,3 hPa 0,0 l/m 0 min 0 min 0 W/m 6,3 km/h (2 Bft) 97,87 %
04.11.2016 19:50 7,6 C 7,8 C 6,1 C 87 % 0 lf 1007,3 hPa 0,0 l/m 0 min 0 min 0 W/m 6,3 km/h (2 Bft) 97,87 %
04.11.2016 19:52 7,6 C 7,8 C 6,1 C 87 % 0 lf 1007,3 hPa 0,0 l/m 0 min 0 min 0 W/m 8,4 km/h (2 Bft) 97,83 %
04.11.2016 19:54 7,6 C 7,8 C 6,1 C 87 % 0 lf 1007,3 hPa 0,0 l/m 0 min 0 min 0 W/m 6,3 km/h (2 Bft) 97,87 %
04.11.2016 19:56 7,6 C 7,8 C 6,1 C 87 % 0 lf 1007,2 hPa 0,0 l/m 0 min 0 min 0 W/m 8,4 km/h (2 Bft) 97,87 %
04.11.2016 19:58 7,6 C 7,8 C 6,1 C 87 % 0 lf 1007,2 hPa 0,0 l/m 0 min 0 min 0 W/m 10,5 km/h (2 Bft) 97,87 %
04.11.2016 20:00 7,6 C 7,8 C 6,1 C 87 % 0 lf 1007,2 hPa 0,0 l/m 0 min 0 min 0 W/m 12,6 km/h (3 Bft) 97,87 %
04.11.2016 20:02 7,6 C 7,8 C 6,1 C 87 % 0 lf 1007,3 hPa 0,0 l/m 0 min 0 min 0 W/m 12,6 km/h (3 Bft) 97,83 %
04.11.2016 20:04 7,7 C 7,8 C 6,7 C 87 % 0 lf 1007,3 hPa 0,0 l/m 0 min 0 min 0 W/m 14,6 km/h (3 Bft) 98,00 %
04.11.2016 20:06 7,6 C 7,8 C 6,7 C 87 % 0 lf 1007,3 hPa 0,0 l/m 0 min 0 min 0 W/m 8,4 km/h (2 Bft) 96,00 %
04.11.2016 20:08 7,6 C 7,8 C 6,7 C 86 % 0 lf 1007,3 hPa 0,0 l/m 0 min 0 min 0 W/m 8,4 km/h (2 Bft) 95,74 %
04.11.2016 20:10 7,6 C 7,8 C 6,7 C 86 % 0 lf 1007,3 hPa 0,0 l/m 0 min 0 min 0 W/m 12,6 km/h (3 Bft) 97,87 %
04.11.2016 20:12 7,7 C 8,3 C 6,7 C 86 % 0 lf 1007,2 hPa 0,0 l/m 0 min 0 min 0 W/m 10,5 km/h (2 Bft) 95,74 %
04.11.2016 20:14 7,7 C 8,3 C 6,7 C 86 % 0 lf 1007,3 hPa 0,0 l/m 0 min 0 min 0 W/m 8,4 km/h (2 Bft) 95,65 %
04.11.2016 20:16 7,7 C 8,3 C 6,7 C 86 % 0 lf 1007,3 hPa 0,0 l/m 0 min 0 min 0 W/m 12,6 km/h (3 Bft) 95,83 %
04.11.2016 20:18 7,7 C 8,3 C 6,7 C 86 % 0 lf 1007,2 hPa 0,0 l/m 0 min 0 min 0 W/m 12,6 km/h (3 Bft) 95,65 %
04.11.2016 20:20 7,7 C 8,3 C 6,7 C 86 % 0 lf 1007,2 hPa 0,0 l/m 0 min 0 min 0 W/m 10,5 km/h (2 Bft) 93,62 %
04.11.2016 20:22 7,7 C 8,3 C 6,7 C 85 % 0 lf 1007,2 hPa 0,0 l/m 0 min 0 min 0 W/m 10,5 km/h (2 Bft) 97,87 %
04.11.2016 20:24 7,7 C 8,3 C 6,7 C 85 % 0 lf 1007,1 hPa 0,0 l/m 0 min 0 min 0 W/m 12,6 km/h (3 Bft) 97,14 %
04.11.2016 20:26 7,7 C 8,3 C 6,7 C 85 % 0 lf 1007,0 hPa 0,0 l/m 0 min 0 min 0 W/m 14,6 km/h (3 Bft) 91,38 %
04.11.2016 20:28 7,7 C 8,3 C 6,7 C 84 % 0 lf 1007,1 hPa 0,0 l/m 0 min 0 min 0 W/m 23,0 km/h (4 Bft) 97,87 %
04.11.2016 20:30 7,7 C 8,3 C 6,7 C 84 % 0 lf 1007,1 hPa 0,0 l/m 0 min 0 min 0 W/m 18,8 km/h (3 Bft) 97,87 %
04.11.2016 20:32 7,8 C 8,3 C 6,7 C 84 % 0 lf 1007,1 hPa 0,0 l/m 0 min 0 min 0 W/m 12,6 km/h (3 Bft) 97,87 %
04.11.2016 20:34 7,8 C 8,3 C 6,7 C 84 % 0 lf 1007,1 hPa 0,0 l/m 0 min 0 min 0 W/m 20,9 km/h (4 Bft) 95,74 %
04.11.2016 20:36 7,8 C 8,3 C 6,7 C 84 % 0 lf 1007,1 hPa 0,0 l/m 0 min 0 min 0 W/m 27,2 km/h (4 Bft) 95,74 %
04.11.2016 20:38 7,9 C 8,3 C 6,7 C 83 % 0 lf 1007,1 hPa 0,0 l/m 0 min 0 min 0 W/m 18,8 km/h (3 Bft) 95,74 %
04.11.2016 20:40 7,9 C 8,3 C 6,7 C 83 % 0 lf 1007,1 hPa 0,0 l/m 0 min 0 min 0 W/m 12,6 km/h (3 Bft) 95,65 %
04.11.2016 20:42 7,9 C 8,3 C 6,7 C 83 % 0 lf 1007,0 hPa 0,0 l/m 0 min 0 min 0 W/m 14,6 km/h (3 Bft) 97,87 %
04.11.2016 20:44 7,9 C 8,3 C 6,7 C 82 % 0 lf 1007,0 hPa 0,0 l/m 0 min 0 min 0 W/m 14,6 km/h (3 Bft) 95,74 %
04.11.2016 20:46 8,0 C 8,3 C 6,7 C 82 % 0 lf 1007,0 hPa 0,0 l/m 0 min 0 min 0 W/m 10,5 km/h (2 Bft) 95,74 %
04.11.2016 20:48 8,0 C 8,3 C 6,7 C 82 % 0 lf 1006,9 hPa 0,0 l/m 0 min 0 min 0 W/m 12,6 km/h (3 Bft) 95,74 %
04.11.2016 20:50 8,1 C 8,3 C 6,7 C 82 % 0 lf 1006,8 hPa 0,0 l/m 0 min 0 min 0 W/m 12,6 km/h (3 Bft) 91,43 %
04.11.2016 20:52 8,1 C 8,3 C 6,7 C 82 % 0 lf 1006,8 hPa 0,0 l/m 0 min 0 min 0 W/m 10,5 km/h (2 Bft) 96,55 %
04.11.2016 20:54 8,1 C 8,3 C 6,7 C 82 % 0 lf 1006,8 hPa 0,0 l/m 0 min 0 min 0 W/m 12,6 km/h (3 Bft) 97,87 %
04.11.2016 20:56 8,1 C 8,3 C 6,7 C 82 % 0 lf 1006,8 hPa 0,0 l/m 0 min 0 min 0 W/m 10,5 km/h (2 Bft) 95,74 %
04.11.2016 20:58 8,1 C 8,3 C 6,7 C 82 % 0 lf 1006,7 hPa 0,0 l/m 0 min 0 min 0 W/m 8,4 km/h (2 Bft) 97,87 %
04.11.2016 21:00 8,1 C 8,3 C 6,7 C 82 % 0 lf 1006,8 hPa 0,0 l/m 0 min 0 min 0 W/m 10,5 km/h (2 Bft) 97,87 %
04.11.2016 21:02 8,1 C 8,3 C 6,7 C 82 % 0 lf 1006,8 hPa 0,0 l/m 0 min 0 min 0 W/m 16,7 km/h (3 Bft) 95,74 %
04.11.2016 21:04 8,1 C 8,3 C 6,7 C 82 % 0 lf 1006,8 hPa 0,0 l/m 0 min 0 min 0 W/m 12,6 km/h (3 Bft) 95,74 %
04.11.2016 21:06 8,1 C 8,3 C 6,7 C 82 % 0 lf 1006,8 hPa 0,0 l/m 0 min 0 min 0 W/m 12,6 km/h (3 Bft) 97,30 %
04.11.2016 21:08 8,1 C 8,3 C 6,7 C 83 % 0 lf 1006,8 hPa 0,0 l/m 0 min 2 min 0 W/m 14,6 km/h (3 Bft) 93,62 %
04.11.2016 21:10 8,1 C 8,3 C 6,7 C 83 % 0 lf 1006,7 hPa 0,0 l/m 0 min 2 min 0 W/m 14,6 km/h (3 Bft) 95,74 %
04.11.2016 21:12 8,1 C 7,8 C 6,1 C 83 % 2 lf 1006,6 hPa 0,0 l/m 0 min 2 min 0 W/m 16,7 km/h (3 Bft) 97,87 %
04.11.2016 21:14 8,1 C 7,8 C 6,1 C 83 % 1 lf 1006,6 hPa 0,0 l/m 0 min 2 min 0 W/m 14,6 km/h (3 Bft) 100,00 %
04.11.2016 21:16 8,1 C 7,8 C 6,1 C 84 % 1 lf 1006,6 hPa 0,0 l/m 0 min 2 min 0 W/m 10,5 km/h (2 Bft) 97,87 %
04.11.2016 21:18 8,1 C 7,8 C 6,1 C 84 % 0 lf 1006,6 hPa 0,0 l/m 0 min 0 min 0 W/m 10,5 km/h (2 Bft) 95,65 %
04.11.2016 21:20 8,0 C 7,8 C 6,1 C 84 % 0 lf 1006,6 hPa 0,0 l/m 0 min 0 min 0 W/m 14,6 km/h (3 Bft) 100,00 %
04.11.2016 21:22 8,0 C 7,8 C 6,1 C 84 % 0 lf 1006,6 hPa 0,0 l/m 0 min 0 min 0 W/m 14,6 km/h (3 Bft) 95,74 %
04.11.2016 21:24 8,0 C 7,8 C 6,1 C 84 % 0 lf 1006,6 hPa 0,0 l/m 0 min 0 min 0 W/m 10,5 km/h (2 Bft) 97,87 %
04.11.2016 21:26 7,9 C 7,8 C 6,1 C 84 % 0 lf 1006,6 hPa 0,0 l/m 0 min 0 min 0 W/m 14,6 km/h (3 Bft) 100,00 %
04.11.2016 21:28 7,9 C 7,8 C 6,1 C 85 % 0 lf 1006,5 hPa 0,0 l/m 0 min 0 min 0 W/m 10,5 km/h (2 Bft) 97,87 %
04.11.2016 21:30 7,9 C 7,8 C 6,1 C 85 % 0 lf 1006,5 hPa 0,0 l/m 0 min 0 min 0 W/m 16,7 km/h (3 Bft) 97,83 %
04.11.2016 21:32 7,9 C 7,8 C 6,1 C 85 % 0 lf 1006,5 hPa 0,0 l/m 0 min 0 min 0 W/m 12,6 km/h (3 Bft) 100,00 %
04.11.2016 21:34 7,9 C 7,8 C 6,1 C 85 % 0 lf 1006,5 hPa 0,0 l/m 0 min 0 min 0 W/m 12,6 km/h (3 Bft) 97,87 %
04.11.2016 21:36 7,9 C 7,8 C 6,1 C 85 % 0 lf 1006,5 hPa 0,0 l/m 0 min 0 min 0 W/m 12,6 km/h (3 Bft) 100,00 %
04.11.2016 21:38 7,8 C 7,8 C 6,1 C 85 % 0 lf 1006,4 hPa 0,0 l/m 0 min 0 min 0 W/m 10,5 km/h (2 Bft) 100,00 %
04.11.2016 21:40 7,8 C 7,8 C 6,1 C 85 % 0 lf 1006,4 hPa 0,0 l/m 0 min 0 min 0 W/m 8,4 km/h (2 Bft) 95,74 %
04.11.2016 21:42 7,8 C 7,8 C 6,1 C 85 % 0 lf 1006,4 hPa 0,0 l/m 0 min 0 min 0 W/m 10,5 km/h (2 Bft) 100,00 %
04.11.2016 21:44 7,8 C 7,8 C 6,1 C 85 % 0 lf 1006,4 hPa 0,0 l/m 0 min 0 min 0 W/m 8,4 km/h (2 Bft) 93,62 %
04.11.2016 21:46 7,8 C 7,8 C 6,1 C 85 % 0 lf 1006,3 hPa 0,0 l/m 0 min 0 min 0 W/m 8,4 km/h (2 Bft) 97,87 %
04.11.2016 21:48 7,8 C 7,8 C 6,1 C 85 % 0 lf 1006,3 hPa 0,0 l/m 0 min 0 min 0 W/m 8,4 km/h (2 Bft) 97,83 %
04.11.2016 21:50 7,8 C 7,8 C 6,1 C 85 % 0 lf 1006,2 hPa 0,0 l/m 0 min 0 min 0 W/m 10,5 km/h (2 Bft) 97,87 %
04.11.2016 21:52 7,7 C 7,8 C 6,1 C 86 % 0 lf 1006,2 hPa 0,0 l/m 0 min 2 min 0 W/m 8,4 km/h (2 Bft) 93,62 %
04.11.2016 21:54 7,7 C 7,2 C 6,1 C 86 % 0 lf 1006,1 hPa 0,0 l/m 0 min 0 min 0 W/m 10,5 km/h (2 Bft) 97,87 %
04.11.2016 21:56 7,7 C 7,2 C 6,1 C 86 % 0 lf 1006,1 hPa 0,0 l/m 0 min 0 min 0 W/m 6,3 km/h (2 Bft) 97,87 %
04.11.2016 21:58 7,7 C 7,2 C 6,1 C 86 % 0 lf 1006,1 hPa 0,0 l/m 0 min 0 min 0 W/m 8,4 km/h (2 Bft) 95,74 %
04.11.2016 22:00 7,7 C 7,2 C 5,6 C 86 % 0 lf 1006,1 hPa 0,0 l/m 0 min 0 min 0 W/m 8,4 km/h (2 Bft) 95,65 %
04.11.2016 22:02 7,7 C 7,2 C 5,6 C 86 % 0 lf 1006,2 hPa 0,0 l/m 0 min 0 min 0 W/m 10,5 km/h (2 Bft) 97,87 %
04.11.2016 22:04 7,6 C 7,2 C 5,6 C 86 % 1 lf 1006,1 hPa 0,0 l/m 0 min 0 min 0 W/m 8,4 km/h (2 Bft) 97,92 %
04.11.2016 22:06 7,6 C 7,2 C 5,6 C 86 % 1 lf 1006,1 hPa 0,0 l/m 0 min 2 min 0 W/m 8,4 km/h (2 Bft) 95,83 %
04.11.2016 22:08 7,6 C 7,2 C 5,6 C 86 % 0 lf 1006,0 hPa 0,0 l/m 0 min 0 min 0 W/m 8,4 km/h (2 Bft) 93,62 %
04.11.2016 22:10 7,6 C 7,2 C 5,6 C 86 % 0 lf 1005,9 hPa 0,0 l/m 0 min 0 min 0 W/m 8,4 km/h (2 Bft) 97,87 %
04.11.2016 22:12 7,6 C 7,2 C 5,6 C 86 % 0 lf 1005,9 hPa 0,0 l/m 0 min 0 min 0 W/m 6,3 km/h (2 Bft) 95,74 %
04.11.2016 22:14 7,6 C 7,2 C 5,6 C 87 % 0 lf 1005,9 hPa 0,0 l/m 0 min 2 min 0 W/m 8,4 km/h (2 Bft) 97,83 %
04.11.2016 22:16 7,5 C 7,2 C 5,6 C 87 % 0 lf 1005,9 hPa 0,0 l/m 0 min 2 min 0 W/m 6,3 km/h (2 Bft) 95,74 %
04.11.2016 22:18 7,5 C 7,2 C 5,6 C 87 % 1 lf 1005,9 hPa 0,0 l/m 0 min 2 min 0 W/m 8,4 km/h (2 Bft) 97,14 %
04.11.2016 22:20 7,5 C 7,2 C 5,6 C 87 % 0 lf 1005,9 hPa 0,0 l/m 0 min 2 min 0 W/m 6,3 km/h (2 Bft) 93,62 %
04.11.2016 22:22 7,4 C 7,2 C 5,6 C 87 % 0 lf 1005,9 hPa 0,0 l/m 0 min 0 min 0 W/m 6,3 km/h (2 Bft) 95,74 %
04.11.2016 22:24 7,4 C 7,2 C 5,6 C 87 % 0 lf 1005,9 hPa 0,0 l/m 0 min 0 min 0 W/m 6,3 km/h (2 Bft) 95,74 %
04.11.2016 22:26 7,4 C 7,2 C 5,6 C 87 % 0 lf 1005,8 hPa 0,0 l/m 0 min 0 min 0 W/m 6,3 km/h (2 Bft) 96,30 %
04.11.2016 22:28 7,4 C 7,2 C 5,6 C 87 % 0 lf 1005,8 hPa 0,0 l/m 0 min 2 min 0 W/m 6,3 km/h (2 Bft) 95,74 %
04.11.2016 22:30 7,4 C 7,2 C 5,6 C 87 % 0 lf 1005,8 hPa 0,0 l/m 0 min 0 min 0 W/m 6,3 km/h (2 Bft) 91,49 %
04.11.2016 22:32 7,3 C 7,2 C 5,6 C 87 % 0 lf 1005,8 hPa 0,0 l/m 0 min 0 min 0 W/m 4,2 km/h (1 Bft) 93,62 %
04.11.2016 22:34 7,3 C 7,2 C 5,6 C 88 % 0 lf 1005,7 hPa 0,0 l/m 0 min 2 min 0 W/m 4,2 km/h (1 Bft) 93,48 %
04.11.2016 22:36 7,3 C 7,2 C 5,6 C 88 % 0 lf 1005,7 hPa 0,0 l/m 0 min 0 min 0 W/m 6,3 km/h (2 Bft) 92,00 %
04.11.2016 22:38 7,3 C 7,2 C 5,6 C 88 % 0 lf 1005,7 hPa 0,0 l/m 0 min 0 min 0 W/m 6,3 km/h (2 Bft) 91,49 %
04.11.2016 22:40 7,3 C 7,2 C 5,6 C 88 % 0 lf 1005,8 hPa 0,0 l/m 0 min 0 min 0 W/m 12,6 km/h (3 Bft) 93,62 %
04.11.2016 22:42 7,3 C 7,2 C 5,6 C 88 % 0 lf 1005,7 hPa 0,0 l/m 0 min 0 min 0 W/m 6,3 km/h (2 Bft) 95,74 %
04.11.2016 22:44 7,3 C 7,2 C 5,6 C 88 % 0 lf 1005,7 hPa 0,0 l/m 0 min 0 min 0 W/m 6,3 km/h (2 Bft) 97,87 %
04.11.2016 22:46 7,2 C 7,2 C 5,6 C 88 % 0 lf 1005,6 hPa 0,0 l/m 0 min 0 min 0 W/m 6,3 km/h (2 Bft) 93,48 %
04.11.2016 22:48 7,2 C 7,2 C 5,6 C 88 % 0 lf 1005,6 hPa 0,0 l/m 0 min 0 min 0 W/m 6,3 km/h (2 Bft) 91,49 %
04.11.2016 22:50 7,2 C 7,2 C 5,6 C 88 % 0 lf 1005,6 hPa 0,0 l/m 0 min 0 min 0 W/m 6,3 km/h (2 Bft) 95,74 %
04.11.2016 22:52 7,2 C 7,2 C 5,6 C 88 % 0 lf 1005,5 hPa 0,0 l/m 0 min 0 min 0 W/m 8,4 km/h (2 Bft) 95,74 %
04.11.2016 22:54 7,2 C 7,2 C 5,6 C 88 % 0 lf 1005,5 hPa 0,0 l/m 0 min 0 min 0 W/m 8,4 km/h (2 Bft) 93,62 %
04.11.2016 22:56 7,2 C 7,2 C 5,6 C 88 % 0 lf 1005,5 hPa 0,0 l/m 0 min 0 min 0 W/m 8,4 km/h (2 Bft) 93,48 %
04.11.2016 22:58 7,2 C 7,2 C 5,6 C 88 % 0 lf 1005,5 hPa 0,0 l/m 0 min 0 min 0 W/m 8,4 km/h (2 Bft) 97,87 %
04.11.2016 23:00 7,2 C 7,2 C 5,6 C 88 % 0 lf 1005,5 hPa 0,0 l/m 0 min 0 min 0 W/m 8,4 km/h (2 Bft) 93,62 %
04.11.2016 23:02 7,2 C 7,2 C 5,6 C 88 % 0 lf 1005,5 hPa 0,0 l/m 0 min 0 min 0 W/m 8,4 km/h (2 Bft) 93,62 %
04.11.2016 23:04 7,2 C 7,2 C 5,6 C 88 % 0 lf 1005,5 hPa 0,0 l/m 0 min 0 min 0 W/m 8,4 km/h (2 Bft) 93,62 %
04.11.2016 23:06 7,1 C 7,2 C 5,6 C 89 % 0 lf 1005,5 hPa 0,0 l/m 0 min 0 min 0 W/m 12,6 km/h (3 Bft) 96,00 %
04.11.2016 23:08 7,1 C 7,2 C 5,6 C 89 % 0 lf 1005,4 hPa 0,0 l/m 0 min 0 min 0 W/m 10,5 km/h (2 Bft) 95,65 %
04.11.2016 23:10 7,1 C 7,2 C 5,6 C 89 % 0 lf 1005,5 hPa 0,0 l/m 0 min 2 min 0 W/m 10,5 km/h (2 Bft) 93,62 %
04.11.2016 23:12 7,1 C 7,2 C 5,6 C 89 % 0 lf 1005,4 hPa 0,0 l/m 0 min 2 min 0 W/m 10,5 km/h (2 Bft) 94,59 %
04.11.2016 23:14 7,1 C 7,2 C 5,6 C 89 % 0 lf 1005,4 hPa 0,0 l/m 0 min 2 min 0 W/m 10,5 km/h (2 Bft) 91,30 %
04.11.2016 23:16 7,1 C 7,2 C 5,6 C 89 % 0 lf 1005,4 hPa 0,0 l/m 0 min 0 min 0 W/m 10,5 km/h (2 Bft) 93,62 %
04.11.2016 23:18 7,1 C 7,2 C 5,6 C 89 % 0 lf 1005,4 hPa 0,0 l/m 0 min 0 min 0 W/m 12,6 km/h (3 Bft) 92,73 %
04.11.2016 23:20 7,1 C 7,2 C 5,6 C 89 % 0 lf 1005,3 hPa 0,0 l/m 0 min 0 min 0 W/m 10,5 km/h (2 Bft) 95,65 %
04.11.2016 23:22 7,1 C 7,2 C 5,6 C 89 % 0 lf 1005,3 hPa 0,0 l/m 0 min 2 min 0 W/m 12,6 km/h (3 Bft) 95,74 %
04.11.2016 23:24 7,1 C 7,2 C 5,6 C 89 % 0 lf 1005,2 hPa 0,0 l/m 0 min 2 min 0 W/m 10,5 km/h (2 Bft) 93,62 %
04.11.2016 23:26 7,1 C 7,2 C 5,6 C 89 % 0 lf 1005,2 hPa 0,0 l/m 0 min 2 min 0 W/m 8,4 km/h (2 Bft) 85,11 %
04.11.2016 23:28 7,1 C 7,2 C 5,6 C 89 % 0 lf 1005,1 hPa 0,0 l/m 0 min 2 min 0 W/m 10,5 km/h (2 Bft) 93,62 %
04.11.2016 23:30 7,1 C 7,2 C 5,6 C 89 % 1 lf 1005,1 hPa 0,0 l/m 0 min 2 min 0 W/m 14,6 km/h (3 Bft) 95,74 %
04.11.2016 23:32 7,1 C 6,7 C 5,6 C 89 % 0 lf 1005,1 hPa 0,0 l/m 0 min 2 min 0 W/m 8,4 km/h (2 Bft) 95,65 %
04.11.2016 23:34 7,1 C 6,7 C 5,6 C 90 % 0 lf 1005,0 hPa 0,0 l/m 0 min 2 min 0 W/m 10,5 km/h (2 Bft) 93,62 %
04.11.2016 23:36 7,1 C 6,7 C 5,6 C 90 % 0 lf 1005,0 hPa 0,0 l/m 0 min 2 min 0 W/m 10,5 km/h (2 Bft) 94,00 %
04.11.2016 23:38 7,1 C 6,7 C 5,0 C 90 % 0 lf 1005,0 hPa 0,0 l/m 0 min 2 min 0 W/m 12,6 km/h (3 Bft) 95,74 %
04.11.2016 23:40 7,1 C 6,7 C 5,0 C 90 % 0 lf 1005,0 hPa 0,0 l/m 0 min 2 min 0 W/m 10,5 km/h (2 Bft) 95,74 %
04.11.2016 23:42 7,1 C 6,1 C 5,0 C 90 % 0 lf 1004,9 hPa 0,0 l/m 0 min 2 min 0 W/m 12,6 km/h (3 Bft) 97,83 %
04.11.2016 23:44 7,1 C 6,1 C 5,0 C 90 % 0 lf 1005,0 hPa 0,0 l/m 0 min 2 min 0 W/m 16,7 km/h (3 Bft) 97,87 %
04.11.2016 23:46 7,1 C 6,1 C 5,0 C 90 % 0 lf 1004,9 hPa 0,0 l/m 0 min 2 min 0 W/m 14,6 km/h (3 Bft) 93,62 %
04.11.2016 23:48 7,1 C 6,1 C 5,0 C 90 % 0 lf 1005,0 hPa 0,0 l/m 0 min 2 min 0 W/m 12,6 km/h (3 Bft) 95,74 %
04.11.2016 23:50 7,1 C 6,1 C 5,0 C 90 % 1 lf 1004,9 hPa 0,0 l/m 0 min 2 min 0 W/m 12,6 km/h (3 Bft) 97,87 %
04.11.2016 23:52 7,1 C 6,1 C 5,0 C 90 % 0 lf 1004,9 hPa 0,0 l/m 0 min 2 min 0 W/m 12,6 km/h (3 Bft) 95,74 %
04.11.2016 23:54 7,0 C 6,1 C 5,0 C 90 % 0 lf 1004,8 hPa 0,0 l/m 0 min 2 min 0 W/m 12,6 km/h (3 Bft) 97,83 %
04.11.2016 23:56 7,0 C 6,1 C 5,0 C 90 % 1 lf 1004,8 hPa 0,0 l/m 0 min 2 min 0 W/m 10,5 km/h (2 Bft) 97,87 %
04.11.2016 23:58 7,0 C 6,1 C 5,0 C 90 % 1 lf 1004,7 hPa 0,0 l/m 0 min 2 min 0 W/m 8,4 km/h (2 Bft) 97,87 %
_ Min-Zeit 05:12 00:00 00:00 14:18 00:00 23:58 - - - - 01:58 06:26
Minimum _ 5,5 C 5,6 C 3,9 C 73 % 0 lf 1004,7 hPa - - - - 4,2 km/h (1 Bft) 85,11 %
_ Max-Zeit 14:10 13:58 13:10 04:38 07:34 00:00 07:54 09:50 07:10 11:42 08:36 00:34
Maximum _ 11,0 C 15,6 C 11,1 C 95 % 15 lf 1018,2 hPa 0,2 l/m 2 min 2 min 445 W/m 27,2 km/h
S (4 Bft)
100,00 %
Durchschnitt _ 7,5 C 8,0 C 6,4 C 87 % 1 lf 1011,9 hPa #0,2 l/m #4:06 h #2:22 h 143 W/m 11,8 km/h (2 Bft) 95,99 %
© 2016 W. Hausmann